Time,TemperatureF,DewpointF,PressureIn,WindDirection,WindDirectionDegrees,WindSpeedMPH,WindSpeedGustMPH,Humidity,HourlyPrecipIn,Conditions,Clouds,dailyrainin,SoftwareType,DateUTC
2013-04-06 00:00:00,58.7,23.5,29.97,SW,225,1.1,2.5,26,0.00,,,0.00,WUHU216HW,2013-04-06 07:00:00,
2013-04-06 00:01:00,58.7,24.5,29.97,SW,225,0.7,2.5,27,0.00,,,0.00,WUHU216HW,2013-04-06 07:01:00,
2013-04-06 00:03:00,58.1,24.0,29.97,SW,225,0.0,2.5,27,0.00,,,0.00,WUHU216HW,2013-04-06 07:03:00,
2013-04-06 00:06:00,58.0,23.9,29.97,ESE,113,1.6,2.5,27,0.00,,,0.00,WUHU216HW,2013-04-06 07:06:00,
2013-04-06 00:09:00,57.6,24.5,29.97,SW,225,2.0,2.0,28,0.00,,,0.00,WUHU216HW,2013-04-06 07:09:00,
2013-04-06 00:11:00,57.2,24.2,29.97,SW,225,1.3,2.0,28,0.00,,,0.00,WUHU216HW,2013-04-06 07:11:00,
2013-04-06 00:12:00,57.2,24.2,29.97,SW,225,1.1,2.0,28,0.00,,,0.00,WUHU216HW,2013-04-06 07:12:00,
2013-04-06 00:14:00,57.1,24.0,29.97,WSW,248,0.4,2.0,28,0.00,,,0.00,WUHU216HW,2013-04-06 07:14:00,
2013-04-06 00:17:00,57.1,25.0,29.97,WNW,293,2.5,2.7,29,0.00,,,0.00,WUHU216HW,2013-04-06 07:17:00,
2013-04-06 00:19:00,57.1,24.0,29.97,NNW,338,1.1,2.7,28,0.00,,,0.00,WUHU216HW,2013-04-06 07:19:00,
2013-04-06 00:22:00,57.2,25.1,29.97,WNW,293,0.7,2.7,29,0.00,,,0.00,WUHU216HW,2013-04-06 07:22:00,
2013-04-06 00:24:00,57.4,25.3,29.97,WNW,293,2.7,2.7,29,0.00,,,0.00,WUHU216HW,2013-04-06 07:24:00,
2013-04-06 00:27:00,57.8,24.7,29.97,NNW,338,1.3,4.5,28,0.00,,,0.00,WUHU216HW,2013-04-06 07:27:00,
2013-04-06 00:28:00,57.8,24.7,29.97,NNW,338,1.3,4.5,28,0.00,,,0.00,WUHU216HW,2013-04-06 07:28:00,
2013-04-06 00:29:00,58.0,24.9,29.97,NNW,338,1.8,4.5,28,0.00,,,0.00,WUHU216HW,2013-04-06 07:29:00,
2013-04-06 00:30:00,58.0,24.9,29.97,North,0,1.6,4.5,28,0.00,,,0.00,WUHU216HW,2013-04-06 07:30:00,
2013-04-06 00:33:00,58.1,25.9,29.97,NNE,23,2.0,4.7,29,0.00,,,0.00,WUHU216HW,2013-04-06 07:33:00,
2013-04-06 00:35:00,58.5,25.3,29.97,ENE,68,3.8,4.7,28,0.00,,,0.00,WUHU216HW,2013-04-06 07:35:00,
2013-04-06 00:38:00,58.9,25.7,29.96,ENE,68,5.8,6.5,28,0.00,,,0.00,WUHU216HW,2013-04-06 07:38:00,
2013-04-06 00:39:00,59.0,25.7,29.96,ENE,68,4.7,6.5,28,0.00,,,0.00,WUHU216HW,2013-04-06 07:39:00,
2013-04-06 00:40:00,59.2,25.9,29.97,ENE,68,4.5,6.5,28,0.00,,,0.00,WUHU216HW,2013-04-06 07:40:00,
2013-04-06 00:44:00,59.4,26.1,29.96,ESE,113,4.0,6.5,28,0.00,,,0.00,WUHU216HW,2013-04-06 07:44:00,
2013-04-06 00:45:00,59.4,25.1,29.96,NNE,23,5.4,6.5,27,0.00,,,0.00,WUHU216HW,2013-04-06 07:45:00,
2013-04-06 00:49:00,59.4,25.1,29.96,NE,45,2.7,5.6,27,0.00,,,0.00,WUHU216HW,2013-04-06 07:49:00,
2013-04-06 00:50:00,59.4,25.1,29.96,NNE,23,0.4,5.6,27,0.00,,,0.00,WUHU216HW,2013-04-06 07:50:00,
2013-04-06 00:54:00,59.2,24.9,29.97,NW,315,1.6,5.6,27,0.00,,,0.00,WUHU216HW,2013-04-06 07:54:00,
2013-04-06 00:55:00,59.2,24.9,29.97,NW,315,0.0,5.6,27,0.00,,,0.00,WUHU216HW,2013-04-06 07:55:00,
2013-04-06 00:56:00,59.2,24.9,29.97,NW,315,0.0,4.0,27,0.00,,,0.00,WUHU216HW,2013-04-06 07:56:00,
2013-04-06 00:59:00,59.0,24.9,29.96,North,0,0.9,2.7,27,0.00,,,0.00,WUHU216HW,2013-04-06 07:59:00,
2013-04-06 01:00:00,59.0,24.9,29.96,NNE,23,0.7,2.7,27,0.00,,,0.00,WUHU216HW,2013-04-06 08:00:00,
2013-04-06 01:01:00,58.9,24.7,29.96,NNW,338,0.7,2.7,27,0.00,,,0.00,WUHU216HW,2013-04-06 08:01:00,
2013-04-06 01:04:00,58.7,24.5,29.97,NNW,338,0.9,1.6,27,0.00,,,0.00,WUHU216HW,2013-04-06 08:04:00,
2013-04-06 01:05:00,58.7,24.5,29.97,NNW,338,0.9,1.6,27,0.00,,,0.00,WUHU216HW,2013-04-06 08:05:00,
2013-04-06 01:07:00,58.7,24.5,29.96,North,0,0.4,1.6,27,0.00,,,0.00,WUHU216HW,2013-04-06 08:07:00,
2013-04-06 01:09:00,58.7,24.5,29.96,South,180,1.6,1.8,27,0.00,,,0.00,WUHU216HW,2013-04-06 08:09:00,
2013-04-06 01:10:00,58.7,24.5,29.96,SSE,158,2.0,2.0,27,0.00,,,0.00,WUHU216HW,2013-04-06 08:10:00,
2013-04-06 01:11:00,58.5,24.3,29.96,SSE,158,2.2,2.2,27,0.00,,,0.00,WUHU216HW,2013-04-06 08:11:00,
2013-04-06 01:12:00,58.3,24.2,29.96,SSE,158,1.8,2.5,27,0.00,,,0.00,WUHU216HW,2013-04-06 08:12:00,
2013-04-06 01:15:00,58.1,24.0,29.96,SSW,203,2.5,2.5,27,0.00,,,0.00,WUHU216HW,2013-04-06 08:15:00,
2013-04-06 01:17:00,58.0,24.9,29.96,WSW,248,3.4,3.4,28,0.00,,,0.00,WUHU216HW,2013-04-06 08:17:00,
2013-04-06 01:18:00,57.6,24.5,29.97,WSW,248,4.5,5.1,28,0.00,,,0.00,WUHU216HW,2013-04-06 08:18:00,
2013-04-06 01:20:00,57.1,24.0,29.96,South,180,4.0,5.1,28,0.00,,,0.00,WUHU216HW,2013-04-06 08:20:00,
2013-04-06 01:22:00,56.9,23.9,29.96,SSE,158,4.0,5.1,28,0.00,,,0.00,WUHU216HW,2013-04-06 08:22:00,
2013-04-06 01:23:00,56.7,23.8,29.96,SSE,158,3.8,5.1,28,0.00,,,0.00,WUHU216HW,2013-04-06 08:23:00,
2013-04-06 01:25:00,56.5,23.6,29.96,SSE,158,2.7,5.1,28,0.00,,,0.00,WUHU216HW,2013-04-06 08:25:00,
2013-04-06 01:27:00,56.3,23.4,29.96,SE,135,1.1,4.7,28,0.00,,,0.00,WUHU216HW,2013-04-06 08:27:00,
2013-04-06 01:28:00,56.2,23.2,29.96,SE,135,1.3,4.7,28,0.00,,,0.00,WUHU216HW,2013-04-06 08:28:00,
2013-04-06 01:30:00,56.2,24.2,29.96,SE,135,2.0,4.7,29,0.00,,,0.00,WUHU216HW,2013-04-06 08:30:00,
2013-04-06 01:31:00,56.0,24.0,29.96,ESE,113,2.2,4.7,29,0.00,,,0.00,WUHU216HW,2013-04-06 08:31:00,
2013-04-06 01:32:00,56.0,24.0,29.96,East,90,1.6,4.7,29,0.00,,,0.00,WUHU216HW,2013-04-06 08:32:00,
2013-04-06 01:33:00,56.0,24.0,29.96,ENE,68,2.0,4.0,29,0.00,,,0.00,WUHU216HW,2013-04-06 08:33:00,
2013-04-06 01:35:00,55.8,23.9,29.96,NE,45,2.2,2.5,29,0.00,,,0.00,WUHU216HW,2013-04-06 08:35:00,
2013-04-06 01:36:00,55.8,23.9,29.96,NE,45,2.5,2.5,29,0.00,,,0.00,WUHU216HW,2013-04-06 08:36:00,
2013-04-06 01:37:00,55.8,23.9,29.95,NE,45,1.3,2.5,29,0.00,,,0.00,WUHU216HW,2013-04-06 08:37:00,
2013-04-06 01:38:00,55.8,23.9,29.95,SW,225,1.3,2.5,29,0.00,,,0.00,WUHU216HW,2013-04-06 08:38:00,
2013-04-06 01:40:00,55.8,23.9,29.95,SSW,203,2.2,2.5,29,0.00,,,0.00,WUHU216HW,2013-04-06 08:40:00,
2013-04-06 01:42:00,55.8,23.9,29.95,SSW,203,0.9,2.5,29,0.00,,,0.00,WUHU216HW,2013-04-06 08:42:00,
2013-04-06 01:43:00,55.8,23.9,29.96,ESE,113,2.5,2.5,29,0.00,,,0.00,WUHU216HW,2013-04-06 08:43:00,
2013-04-06 01:45:00,55.6,23.7,29.95,ESE,113,3.4,4.7,29,0.00,,,0.00,WUHU216HW,2013-04-06 08:45:00,
2013-04-06 01:47:00,55.6,23.7,29.95,ENE,68,3.1,4.7,29,0.00,,,0.00,WUHU216HW,2013-04-06 08:47:00,
2013-04-06 01:48:00,55.6,23.7,29.95,ENE,68,4.0,4.7,29,0.00,,,0.00,WUHU216HW,2013-04-06 08:48:00,
2013-04-06 01:50:00,55.6,25.4,29.95,NNW,338,1.8,4.7,31,0.00,,,0.00,WUHU216HW,2013-04-06 08:50:00,
2013-04-06 01:52:00,55.6,26.0,29.95,NW,315,1.3,4.7,32,0.00,,,0.00,WUHU216HW,2013-04-06 08:52:00,
2013-04-06 01:53:00,55.6,26.0,29.95,NNW,338,2.0,4.7,32,0.00,,,0.00,WUHU216HW,2013-04-06 08:53:00,
2013-04-06 01:55:00,55.6,26.0,29.95,NNW,338,0.4,4.0,32,0.00,,,0.00,WUHU216HW,2013-04-06 08:55:00,
2013-04-06 01:57:00,55.8,25.5,29.95,NE,45,1.1,4.0,31,0.00,,,0.00,WUHU216HW,2013-04-06 08:57:00,
2013-04-06 01:58:00,55.8,25.5,29.95,NNE,23,1.1,3.4,31,0.00,,,0.00,WUHU216HW,2013-04-06 08:58:00,
2013-04-06 02:00:00,55.8,25.5,29.95,NE,45,2.2,2.2,31,0.00,,,0.00,WUHU216HW,2013-04-06 09:00:00,
2013-04-06 02:02:00,56.0,25.7,29.94,East,90,3.8,3.8,31,0.00,,,0.00,WUHU216HW,2013-04-06 09:02:00,
2013-04-06 02:03:00,56.2,25.8,29.95,ESE,113,2.5,3.8,31,0.00,,,0.00,WUHU216HW,2013-04-06 09:03:00,
2013-04-06 02:04:00,56.2,25.8,29.95,SE,135,2.5,3.8,31,0.00,,,0.00,WUHU216HW,2013-04-06 09:04:00,
2013-04-06 02:05:00,56.2,25.8,29.95,ESE,113,1.6,3.8,31,0.00,,,0.00,WUHU216HW,2013-04-06 09:05:00,
2013-04-06 02:08:00,56.2,26.6,29.95,WSW,248,3.4,3.8,32,0.00,,,0.00,WUHU216HW,2013-04-06 09:08:00,
2013-04-06 02:10:00,56.2,26.6,29.95,NW,315,2.0,3.8,32,0.00,,,0.00,WUHU216HW,2013-04-06 09:10:00,
2013-04-06 02:13:00,56.0,26.4,29.95,South,180,2.9,4.7,32,0.00,,,0.00,WUHU216HW,2013-04-06 09:13:00,
2013-04-06 02:14:00,56.0,26.4,29.94,South,180,1.1,4.7,32,0.00,,,0.00,WUHU216HW,2013-04-06 09:14:00,
2013-04-06 02:15:00,55.8,26.2,29.94,East,90,0.4,4.7,32,0.00,,,0.00,WUHU216HW,2013-04-06 09:15:00,
2013-04-06 02:18:00,55.6,26.0,29.95,ESE,113,2.9,4.7,32,0.00,,,0.00,WUHU216HW,2013-04-06 09:18:00,
2013-04-06 02:19:00,55.6,26.0,29.94,SSW,203,0.4,4.7,32,0.00,,,0.00,WUHU216HW,2013-04-06 09:19:00,
2013-04-06 02:20:00,55.6,26.0,29.95,SSW,203,0.0,4.7,32,0.00,,,0.00,WUHU216HW,2013-04-06 09:20:00,
2013-04-06 02:22:00,55.4,25.9,29.95,North,0,1.8,4.7,32,0.00,,,0.00,WUHU216HW,2013-04-06 09:22:00,
2013-04-06 02:23:00,55.4,25.9,29.94,NNE,23,1.1,2.9,32,0.00,,,0.00,WUHU216HW,2013-04-06 09:23:00,
2013-04-06 02:25:00,55.4,26.6,29.94,NNE,23,1.8,2.9,33,0.00,,,0.00,WUHU216HW,2013-04-06 09:25:00,
2013-04-06 02:27:00,55.4,26.6,29.94,NNW,338,1.8,2.9,33,0.00,,,0.00,WUHU216HW,2013-04-06 09:27:00,
2013-04-06 02:28:00,55.4,26.6,29.94,NW,315,1.8,2.5,33,0.00,,,0.00,WUHU216HW,2013-04-06 09:28:00,
2013-04-06 02:30:00,55.4,26.6,29.94,WNW,293,0.7,2.5,33,0.00,,,0.00,WUHU216HW,2013-04-06 09:30:00,
2013-04-06 02:32:00,55.6,26.7,29.94,West,270,0.0,2.5,33,0.00,,,0.00,WUHU216HW,2013-04-06 09:32:00,
2013-04-06 02:33:00,55.6,26.7,29.94,NNE,23,1.6,2.5,33,0.00,,,0.00,WUHU216HW,2013-04-06 09:33:00,
2013-04-06 02:35:00,55.6,26.7,29.94,NNE,23,4.0,4.0,33,0.00,,,0.00,WUHU216HW,2013-04-06 09:35:00,
2013-04-06 02:37:00,55.6,26.7,29.94,NNE,23,2.9,4.0,33,0.00,,,0.00,WUHU216HW,2013-04-06 09:37:00,
2013-04-06 02:39:00,55.6,27.5,29.94,North,0,4.7,4.7,34,0.00,,,0.00,WUHU216HW,2013-04-06 09:39:00,
2013-04-06 02:41:00,55.8,27.6,29.94,North,0,1.8,4.7,34,0.00,,,0.00,WUHU216HW,2013-04-06 09:41:00,
2013-04-06 02:42:00,55.8,26.9,29.94,North,0,3.8,4.7,33,0.00,,,0.00,WUHU216HW,2013-04-06 09:42:00,
2013-04-06 02:44:00,55.8,26.9,29.94,NNE,23,4.3,4.7,33,0.00,,,0.00,WUHU216HW,2013-04-06 09:44:00,
2013-04-06 02:46:00,55.8,26.9,29.94,NNE,23,2.9,4.7,33,0.00,,,0.00,WUHU216HW,2013-04-06 09:46:00,
2013-04-06 02:47:00,55.8,26.9,29.94,NE,45,3.4,4.7,33,0.00,,,0.00,WUHU216HW,2013-04-06 09:47:00,
2013-04-06 02:50:00,55.8,26.9,29.93,NNE,23,4.5,4.5,33,0.00,,,0.00,WUHU216HW,2013-04-06 09:50:00,
2013-04-06 02:51:00,56.0,27.8,29.93,NE,45,4.0,5.6,34,0.00,,,0.00,WUHU216HW,2013-04-06 09:51:00,
2013-04-06 02:52:00,56.0,27.8,29.93,NE,45,4.7,5.6,34,0.00,,,0.00,WUHU216HW,2013-04-06 09:52:00,
2013-04-06 02:56:00,56.3,28.1,29.93,NE,45,6.5,6.5,34,0.00,,,0.00,WUHU216HW,2013-04-06 09:56:00,
2013-04-06 02:57:00,56.3,28.1,29.93,North,0,2.9,6.5,34,0.00,,,0.00,WUHU216HW,2013-04-06 09:57:00,
2013-04-06 03:01:00,56.5,29.7,29.94,NNW,338,4.0,6.5,36,0.00,,,0.00,WUHU216HW,2013-04-06 10:01:00,
2013-04-06 03:03:00,56.7,29.2,29.94,NNW,338,2.5,6.5,35,0.00,,,0.00,WUHU216HW,2013-04-06 10:03:00,
2013-04-06 03:06:00,56.7,28.5,29.93,WNW,293,5.4,6.5,34,0.00,,,0.00,WUHU216HW,2013-04-06 10:06:00,
2013-04-06 03:07:00,56.7,28.5,29.94,West,270,3.8,6.5,34,0.00,,,0.00,WUHU216HW,2013-04-06 10:07:00,
2013-04-06 03:08:00,56.5,29.7,29.94,NNW,338,2.7,6.5,36,0.00,,,0.00,WUHU216HW,2013-04-06 10:08:00,
2013-04-06 03:12:00,56.5,28.3,29.94,NNW,338,1.8,5.4,34,0.00,,,0.00,WUHU216HW,2013-04-06 10:12:00,
2013-04-06 03:13:00,56.3,28.1,29.93,NNW,338,1.8,5.4,34,0.00,,,0.00,WUHU216HW,2013-04-06 10:13:00,
2013-04-06 03:14:00,56.2,27.9,29.93,NNE,23,1.1,5.4,34,0.00,,,0.00,WUHU216HW,2013-04-06 10:14:00,
2013-04-06 03:17:00,56.2,27.9,29.93,East,90,2.0,4.5,34,0.00,,,0.00,WUHU216HW,2013-04-06 10:17:00,
2013-04-06 03:18:00,56.0,27.1,29.93,East,90,1.6,3.4,33,0.00,,,0.00,WUHU216HW,2013-04-06 10:18:00,
2013-04-06 03:19:00,56.0,27.1,29.93,NNE,23,0.0,3.4,33,0.00,,,0.00,WUHU216HW,2013-04-06 10:19:00,
2013-04-06 03:22:00,55.8,27.6,29.93,North,0,2.5,3.4,34,0.00,,,0.00,WUHU216HW,2013-04-06 10:22:00,
2013-04-06 03:23:00,55.8,27.6,29.93,North,0,2.5,3.4,34,0.00,,,0.00,WUHU216HW,2013-04-06 10:23:00,
2013-04-06 03:24:00,55.6,27.5,29.93,NNE,23,2.5,3.8,34,0.00,,,0.00,WUHU216HW,2013-04-06 10:24:00,
2013-04-06 03:27:00,55.4,27.3,29.93,NNE,23,3.4,4.3,34,0.00,,,0.00,WUHU216HW,2013-04-06 10:27:00,
2013-04-06 03:28:00,55.4,27.3,29.93,North,0,2.0,4.3,34,0.00,,,0.00,WUHU216HW,2013-04-06 10:28:00,
2013-04-06 03:29:00,55.4,28.0,29.93,NNW,338,1.3,4.3,35,0.00,,,0.00,WUHU216HW,2013-04-06 10:29:00,
2013-04-06 03:33:00,55.4,28.0,29.93,NE,45,2.2,4.3,35,0.00,,,0.00,WUHU216HW,2013-04-06 10:33:00,
2013-04-06 03:35:00,55.3,27.8,29.93,ENE,68,4.9,5.4,35,0.00,,,0.00,WUHU216HW,2013-04-06 10:35:00,
2013-04-06 03:38:00,55.3,27.2,29.93,NW,315,0.4,5.4,34,0.00,,,0.00,WUHU216HW,2013-04-06 10:38:00,
2013-04-06 03:39:00,55.3,27.2,29.93,ENE,68,1.1,5.4,34,0.00,,,0.00,WUHU216HW,2013-04-06 10:39:00,
2013-04-06 03:40:00,55.3,27.2,29.93,NE,45,3.4,5.4,34,0.00,,,0.00,WUHU216HW,2013-04-06 10:40:00,
2013-04-06 03:43:00,55.1,28.4,29.94,WNW,293,2.0,5.4,36,0.00,,,0.00,WUHU216HW,2013-04-06 10:43:00,
2013-04-06 03:44:00,55.1,28.4,29.94,NW,315,1.3,5.4,36,0.00,,,0.00,WUHU216HW,2013-04-06 10:44:00,
2013-04-06 03:45:00,55.1,28.4,29.94,WNW,293,0.9,3.4,36,0.00,,,0.00,WUHU216HW,2013-04-06 10:45:00,
2013-04-06 03:48:00,54.9,28.3,29.93,WSW,248,0.0,3.4,36,0.00,,,0.00,WUHU216HW,2013-04-06 10:48:00,
2013-04-06 03:49:00,54.9,28.3,29.93,SE,135,0.4,3.4,36,0.00,,,0.00,WUHU216HW,2013-04-06 10:49:00,
2013-04-06 03:50:00,54.9,28.3,29.93,ESE,113,2.2,2.5,36,0.00,,,0.00,WUHU216HW,2013-04-06 10:50:00,
2013-04-06 03:53:00,54.7,28.8,29.93,WNW,293,1.1,2.5,37,0.00,,,0.00,WUHU216HW,2013-04-06 10:53:00,
2013-04-06 03:54:00,54.7,28.8,29.93,NE,45,0.4,2.5,37,0.00,,,0.00,WUHU216HW,2013-04-06 10:54:00,
2013-04-06 03:56:00,54.7,28.8,29.93,ENE,68,1.8,3.4,37,0.00,,,0.00,WUHU216HW,2013-04-06 10:56:00,
2013-04-06 03:58:00,54.9,28.3,29.93,East,90,4.0,4.5,36,0.00,,,0.00,WUHU216HW,2013-04-06 10:58:00,
2013-04-06 04:00:00,54.9,28.9,29.93,East,90,3.4,6.0,37,0.00,,,0.00,WUHU216HW,2013-04-06 11:00:00,
2013-04-06 04:01:00,54.9,28.9,29.93,NNE,23,6.0,6.0,37,0.00,,,0.00,WUHU216HW,2013-04-06 11:01:00,
2013-04-06 04:04:00,55.1,29.1,29.94,SW,225,2.7,6.7,37,0.00,,,0.00,WUHU216HW,2013-04-06 11:04:00,
2013-04-06 04:05:00,55.1,29.1,29.94,SW,225,2.7,6.7,37,0.00,,,0.00,WUHU216HW,2013-04-06 11:05:00,
2013-04-06 04:07:00,55.1,29.1,29.94,NNW,338,1.1,6.7,37,0.00,,,0.00,WUHU216HW,2013-04-06 11:07:00,
2013-04-06 04:10:00,55.3,29.3,29.94,NE,45,6.5,6.7,37,0.00,,,0.00,WUHU216HW,2013-04-06 11:10:00,
2013-04-06 04:12:00,55.3,29.3,29.94,ESE,113,4.7,6.5,37,0.00,,,0.00,WUHU216HW,2013-04-06 11:12:00,
2013-04-06 04:15:00,55.4,28.7,29.94,East,90,1.1,6.5,36,0.00,,,0.00,WUHU216HW,2013-04-06 11:15:00,
2013-04-06 04:17:00,55.4,28.7,29.94,SW,225,0.0,6.5,36,0.00,,,0.00,WUHU216HW,2013-04-06 11:17:00,
2013-04-06 04:20:00,55.3,28.5,29.94,WSW,248,0.0,6.5,36,0.00,,,0.00,WUHU216HW,2013-04-06 11:20:00,
2013-04-06 04:22:00,55.3,27.8,29.94,SSE,158,0.0,4.7,35,0.00,,,0.00,WUHU216HW,2013-04-06 11:22:00,
2013-04-06 04:25:00,55.1,28.4,29.93,SW,225,0.4,1.1,36,0.00,,,0.00,WUHU216HW,2013-04-06 11:25:00,
2013-04-06 04:27:00,55.1,28.4,29.93,SW,225,0.0,1.1,36,0.00,,,0.00,WUHU216HW,2013-04-06 11:27:00,
2013-04-06 04:30:00,54.9,28.3,29.93,SW,225,1.3,1.3,36,0.00,,,0.00,WUHU216HW,2013-04-06 11:30:00,
2013-04-06 04:33:00,54.7,28.1,29.93,WSW,248,1.1,2.2,36,0.00,,,0.00,WUHU216HW,2013-04-06 11:33:00,
2013-04-06 04:35:00,54.5,27.9,29.94,West,270,1.6,2.2,36,0.00,,,0.00,WUHU216HW,2013-04-06 11:35:00,
2013-04-06 04:36:00,54.5,27.9,29.94,West,270,1.1,2.2,36,0.00,,,0.00,WUHU216HW,2013-04-06 11:36:00,
2013-04-06 04:38:00,54.4,27.7,29.94,WSW,248,0.9,2.2,36,0.00,,,0.00,WUHU216HW,2013-04-06 11:38:00,
2013-04-06 04:40:00,54.4,27.7,29.94,West,270,0.4,2.2,36,0.00,,,0.00,WUHU216HW,2013-04-06 11:40:00,
2013-04-06 04:42:00,54.4,28.4,29.94,NNW,338,1.1,1.6,37,0.00,,,0.00,WUHU216HW,2013-04-06 11:42:00,
2013-04-06 04:43:00,54.2,28.3,29.94,NNW,338,0.9,1.6,37,0.00,,,0.00,WUHU216HW,2013-04-06 11:43:00,
2013-04-06 04:45:00,54.2,28.3,29.94,West,270,0.0,1.6,37,0.00,,,0.00,WUHU216HW,2013-04-06 11:45:00,
2013-04-06 04:47:00,54.0,28.2,29.93,West,270,0.9,1.6,37,0.00,,,0.00,WUHU216HW,2013-04-06 11:47:00,
2013-04-06 04:49:00,53.8,28.0,29.94,NNW,338,0.9,1.8,37,0.00,,,0.00,WUHU216HW,2013-04-06 11:49:00,
2013-04-06 04:50:00,53.8,28.7,29.94,WNW,293,1.3,1.8,38,0.00,,,0.00,WUHU216HW,2013-04-06 11:50:00,
2013-04-06 04:52:00,53.6,28.5,29.94,WSW,248,3.6,3.8,38,0.00,,,0.00,WUHU216HW,2013-04-06 11:52:00,
2013-04-06 04:55:00,53.5,27.6,29.94,SW,225,2.0,4.5,37,0.00,,,0.00,WUHU216HW,2013-04-06 11:55:00,
2013-04-06 04:57:00,53.3,28.2,29.94,NW,315,1.6,4.5,38,0.00,,,0.00,WUHU216HW,2013-04-06 11:57:00,
2013-04-06 05:00:00,53.3,28.2,29.94,WSW,248,3.4,4.5,38,0.00,,,0.00,WUHU216HW,2013-04-06 12:00:00,
2013-04-06 05:02:00,53.3,28.2,29.94,WSW,248,4.0,4.5,38,0.00,,,0.00,WUHU216HW,2013-04-06 12:02:00,
2013-04-06 05:05:00,53.1,28.7,29.94,West,270,4.5,4.5,39,0.00,,,0.00,WUHU216HW,2013-04-06 12:05:00,
2013-04-06 05:06:00,53.1,28.7,29.94,West,270,5.4,5.6,39,0.00,,,0.00,WUHU216HW,2013-04-06 12:06:00,
2013-04-06 05:07:00,53.1,28.7,29.94,WNW,293,4.3,5.6,39,0.00,,,0.00,WUHU216HW,2013-04-06 12:07:00,
2013-04-06 05:11:00,53.1,29.4,29.94,NNW,338,2.7,6.0,40,0.00,,,0.00,WUHU216HW,2013-04-06 12:11:00,
2013-04-06 05:12:00,53.1,29.4,29.94,West,270,3.6,6.0,40,0.00,,,0.00,WUHU216HW,2013-04-06 12:12:00,
2013-04-06 05:13:00,53.3,29.5,29.94,NW,315,3.1,6.3,40,0.00,,,0.00,WUHU216HW,2013-04-06 12:13:00,
2013-04-06 05:16:00,53.5,30.2,29.94,North,0,4.0,6.3,41,0.00,,,0.00,WUHU216HW,2013-04-06 12:16:00,
2013-04-06 05:17:00,53.6,29.9,29.94,West,270,1.8,6.3,40,0.00,,,0.00,WUHU216HW,2013-04-06 12:17:00,
2013-04-06 05:19:00,53.6,29.9,29.94,WNW,293,5.8,6.3,40,0.00,,,0.00,WUHU216HW,2013-04-06 12:19:00,
2013-04-06 05:21:00,53.8,30.1,29.94,NNW,338,4.0,6.3,40,0.00,,,0.00,WUHU216HW,2013-04-06 12:21:00,
2013-04-06 05:22:00,54.0,30.3,29.94,North,0,2.7,6.3,40,0.00,,,0.00,WUHU216HW,2013-04-06 12:22:00,
2013-04-06 05:23:00,54.0,30.3,29.94,NW,315,2.7,6.3,40,0.00,,,0.00,WUHU216HW,2013-04-06 12:23:00,
2013-04-06 05:24:00,54.2,30.3,29.94,West,270,2.5,6.3,40,0.00,,,0.00,WUHU216HW,2013-04-06 12:24:00,
2013-04-06 05:27:00,54.4,29.9,29.94,West,270,4.9,6.3,39,0.00,,,0.00,WUHU216HW,2013-04-06 12:27:00,
2013-04-06 05:28:00,54.2,29.7,29.94,West,270,3.4,6.3,39,0.00,,,0.00,WUHU216HW,2013-04-06 12:28:00,
2013-04-06 05:30:00,54.2,30.3,29.94,NW,315,2.7,6.3,40,0.00,,,0.00,WUHU216HW,2013-04-06 12:30:00,
2013-04-06 05:32:00,54.2,30.3,29.94,NNW,338,2.0,5.1,40,0.00,,,0.00,WUHU216HW,2013-04-06 12:32:00,
2013-04-06 05:33:00,54.2,29.7,29.94,NNW,338,1.1,5.1,39,0.00,,,0.00,WUHU216HW,2013-04-06 12:33:00,
2013-04-06 05:35:00,54.2,29.7,29.94,West,270,1.3,5.1,39,0.00,,,0.00,WUHU216HW,2013-04-06 12:35:00,
2013-04-06 05:37:00,54.2,29.7,29.94,West,270,2.2,5.1,39,0.00,,,0.00,WUHU216HW,2013-04-06 12:37:00,
2013-04-06 05:38:00,54.2,29.7,29.94,WSW,248,2.7,4.7,39,0.00,,,0.00,WUHU216HW,2013-04-06 12:38:00,
2013-04-06 05:41:00,53.8,29.3,29.94,WSW,248,0.7,4.0,39,0.00,,,0.00,WUHU216HW,2013-04-06 12:41:00,
2013-04-06 05:42:00,53.6,28.5,29.94,NNW,338,0.0,3.1,38,0.00,,,0.00,WUHU216HW,2013-04-06 12:42:00,
2013-04-06 05:43:00,53.6,28.5,29.94,NNW,338,0.0,3.1,38,0.00,,,0.00,WUHU216HW,2013-04-06 12:43:00,
2013-04-06 05:46:00,53.5,28.4,29.94,SSW,203,2.5,3.1,38,0.00,,,0.00,WUHU216HW,2013-04-06 12:46:00,
2013-04-06 05:47:00,53.3,28.2,29.94,SSW,203,3.4,4.0,38,0.00,,,0.00,WUHU216HW,2013-04-06 12:47:00,
2013-04-06 05:48:00,53.3,28.2,29.94,SW,225,2.5,4.0,38,0.00,,,0.00,WUHU216HW,2013-04-06 12:48:00,
2013-04-06 05:49:00,53.1,28.0,29.94,SW,225,1.8,4.0,38,0.00,,,0.00,WUHU216HW,2013-04-06 12:49:00,
2013-04-06 05:51:00,52.9,28.5,29.94,WNW,293,0.0,4.0,39,0.00,,,0.00,WUHU216HW,2013-04-06 12:51:00,
2013-04-06 05:52:00,52.7,28.4,29.94,NW,315,0.0,4.0,39,0.00,,,0.00,WUHU216HW,2013-04-06 12:52:00,
2013-04-06 05:54:00,52.7,28.4,29.94,WSW,248,0.7,4.0,39,0.00,,,0.00,WUHU216HW,2013-04-06 12:54:00,
2013-04-06 05:57:00,52.7,28.4,29.94,SW,225,0.2,3.8,39,0.00,,,0.00,WUHU216HW,2013-04-06 12:57:00,
2013-04-06 05:59:00,52.9,28.5,29.94,South,180,2.2,2.9,39,0.00,,,0.00,WUHU216HW,2013-04-06 12:59:00,
2013-04-06 06:00:00,52.9,28.5,29.94,South,180,2.2,2.9,39,0.00,,,0.00,WUHU216HW,2013-04-06 13:00:00,
2013-04-06 06:02:00,52.7,28.4,29.94,SSE,158,2.5,2.9,39,0.00,,,0.00,WUHU216HW,2013-04-06 13:02:00,
2013-04-06 06:03:00,52.7,28.4,29.94,SSW,203,1.6,2.9,39,0.00,,,0.00,WUHU216HW,2013-04-06 13:03:00,
2013-04-06 06:04:00,52.6,28.3,29.94,SSW,203,1.1,2.9,39,0.00,,,0.00,WUHU216HW,2013-04-06 13:04:00,
2013-04-06 06:05:00,52.4,28.1,29.94,SSW,203,1.1,2.9,39,0.00,,,0.00,WUHU216HW,2013-04-06 13:05:00,
2013-04-06 06:07:00,52.0,28.5,29.94,SW,225,1.8,2.9,40,0.00,,,0.00,WUHU216HW,2013-04-06 13:07:00,
2013-04-06 06:08:00,51.8,28.3,29.95,SSW,203,2.7,2.9,40,0.00,,,0.00,WUHU216HW,2013-04-06 13:08:00,
2013-04-06 06:09:00,51.5,27.9,29.95,SSW,203,3.8,4.7,40,0.00,,,0.00,WUHU216HW,2013-04-06 13:09:00,
2013-04-06 06:10:00,51.5,27.9,29.95,SSW,203,3.8,4.7,40,0.00,,,0.00,WUHU216HW,2013-04-06 13:10:00,
2013-04-06 06:12:00,51.1,27.6,29.94,South,180,3.1,4.7,40,0.00,,,0.00,WUHU216HW,2013-04-06 13:12:00,
2013-04-06 06:13:00,51.1,28.2,29.94,South,180,3.6,4.7,41,0.00,,,0.00,WUHU216HW,2013-04-06 13:13:00,
2013-04-06 06:15:00,50.9,28.5,29.94,South,180,3.1,4.7,42,0.00,,,0.00,WUHU216HW,2013-04-06 13:15:00,
2013-04-06 06:18:00,50.9,28.5,29.94,SSW,203,0.9,4.7,42,0.00,,,0.00,WUHU216HW,2013-04-06 13:18:00,
2013-04-06 06:20:00,50.8,28.5,29.94,SW,225,1.1,4.0,42,0.00,,,0.00,WUHU216HW,2013-04-06 13:20:00,
2013-04-06 06:21:00,50.8,29.0,29.95,SSW,203,1.8,4.0,43,0.00,,,0.00,WUHU216HW,2013-04-06 13:21:00,
2013-04-06 06:23:00,50.8,29.0,29.95,South,180,4.0,5.4,43,0.00,,,0.00,WUHU216HW,2013-04-06 13:23:00,
2013-04-06 06:24:00,50.8,29.5,29.95,SSW,203,4.3,5.4,44,0.00,,,0.00,WUHU216HW,2013-04-06 13:24:00,
2013-04-06 06:26:00,50.8,29.5,29.95,South,180,2.2,5.4,44,0.00,,,0.00,WUHU216HW,2013-04-06 13:26:00,
2013-04-06 06:28:00,50.8,29.5,29.95,South,180,1.6,5.4,44,0.00,,,0.00,WUHU216HW,2013-04-06 13:28:00,
2013-04-06 06:29:00,50.8,29.5,29.95,South,180,4.5,5.4,44,0.00,,,0.00,WUHU216HW,2013-04-06 13:29:00,
2013-04-06 06:31:00,50.8,29.0,29.95,SSE,158,3.8,5.4,43,0.00,,,0.00,WUHU216HW,2013-04-06 13:31:00,
2013-04-06 06:32:00,50.8,29.0,29.95,South,180,4.0,5.4,43,0.00,,,0.00,WUHU216HW,2013-04-06 13:32:00,
2013-04-06 06:34:00,50.9,29.2,29.95,SSE,158,2.5,4.7,43,0.00,,,0.00,WUHU216HW,2013-04-06 13:34:00,
2013-04-06 06:37:00,51.5,29.1,29.95,East,90,1.8,4.7,42,0.00,,,0.00,WUHU216HW,2013-04-06 13:37:00,
2013-04-06 06:39:00,51.7,29.3,29.95,ESE,113,3.8,4.7,42,0.00,,,0.00,WUHU216HW,2013-04-06 13:39:00,
2013-04-06 06:42:00,52.2,29.7,29.95,SSE,158,0.9,4.7,42,0.00,,,0.00,WUHU216HW,2013-04-06 13:42:00,
2013-04-06 06:43:00,52.2,29.7,29.95,SE,135,2.9,4.3,42,0.00,,,0.00,WUHU216HW,2013-04-06 13:43:00,
2013-04-06 06:44:00,52.6,30.6,29.95,SSE,158,1.8,4.3,43,0.00,,,0.00,WUHU216HW,2013-04-06 13:44:00,
2013-04-06 06:45:00,52.6,30.6,29.95,SSE,158,1.6,4.3,43,0.00,,,0.00,WUHU216HW,2013-04-06 13:45:00,
2013-04-06 06:47:00,52.9,30.3,29.95,SSE,158,1.3,3.8,42,0.00,,,0.00,WUHU216HW,2013-04-06 13:47:00,
2013-04-06 06:48:00,53.1,30.5,29.95,South,180,1.1,3.8,42,0.00,,,0.00,WUHU216HW,2013-04-06 13:48:00,
2013-04-06 06:50:00,53.5,30.9,29.95,SW,225,0.7,2.9,42,0.00,,,0.00,WUHU216HW,2013-04-06 13:50:00,
2013-04-06 06:52:00,53.6,31.0,29.95,SSW,203,1.1,2.9,42,0.00,,,0.00,WUHU216HW,2013-04-06 13:52:00,
2013-04-06 06:54:00,54.0,30.8,29.95,SE,135,1.3,2.0,41,0.00,,,0.00,WUHU216HW,2013-04-06 13:54:00,
2013-04-06 06:55:00,54.0,30.8,29.95,SE,135,1.3,2.0,41,0.00,,,0.00,WUHU216HW,2013-04-06 13:55:00,
2013-04-06 06:58:00,54.4,31.1,29.95,ESE,113,1.6,2.2,41,0.00,,,0.00,WUHU216HW,2013-04-06 13:58:00,
2013-04-06 07:00:00,54.7,31.4,29.96,ESE,113,2.0,2.5,41,0.00,,,0.00,WUHU216HW,2013-04-06 14:00:00,
2013-04-06 07:02:00,55.1,31.1,29.96,SE,135,0.4,2.5,40,0.00,,,0.00,WUHU216HW,2013-04-06 14:02:00,
2013-04-06 07:03:00,55.1,31.1,29.96,SE,135,1.3,2.5,40,0.00,,,0.00,WUHU216HW,2013-04-06 14:03:00,
2013-04-06 07:05:00,55.6,31.7,29.96,South,180,1.8,2.5,40,0.00,,,0.00,WUHU216HW,2013-04-06 14:05:00,
2013-04-06 07:06:00,55.6,31.7,29.96,South,180,2.5,2.5,40,0.00,,,0.00,WUHU216HW,2013-04-06 14:06:00,
2013-04-06 07:08:00,55.8,31.2,29.97,SSE,158,1.8,2.5,39,0.00,,,0.00,WUHU216HW,2013-04-06 14:08:00,
2013-04-06 07:11:00,56.3,31.6,29.97,South,180,2.2,3.8,39,0.00,,,0.00,WUHU216HW,2013-04-06 14:11:00,
2013-04-06 07:13:00,56.5,31.8,29.97,SSE,158,1.6,3.8,39,0.00,,,0.00,WUHU216HW,2013-04-06 14:13:00,
2013-04-06 07:16:00,57.1,31.6,29.97,SE,135,2.0,3.8,38,0.00,,,0.00,WUHU216HW,2013-04-06 14:16:00,
2013-04-06 07:18:00,57.2,31.7,29.98,ESE,113,1.6,3.8,38,0.00,,,0.00,WUHU216HW,2013-04-06 14:18:00,
2013-04-06 07:22:00,57.8,32.2,29.98,SSE,158,0.0,2.5,38,0.00,,,0.00,WUHU216HW,2013-04-06 14:22:00,
2013-04-06 07:23:00,58.0,32.4,29.98,SE,135,2.2,2.5,38,0.00,,,0.00,WUHU216HW,2013-04-06 14:23:00,
2013-04-06 07:27:00,58.7,32.3,29.99,South,180,0.7,2.5,37,0.00,,,0.00,WUHU216HW,2013-04-06 14:27:00,
2013-04-06 07:28:00,58.9,32.5,29.99,SE,135,0.4,2.5,37,0.00,,,0.00,WUHU216HW,2013-04-06 14:28:00,
2013-04-06 07:32:00,59.8,32.6,29.99,NE,45,1.6,2.5,36,0.00,,,0.00,WUHU216HW,2013-04-06 14:32:00,
2013-04-06 07:33:00,59.9,32.7,29.99,NE,45,1.8,2.5,36,0.00,,,0.00,WUHU216HW,2013-04-06 14:33:00,
2013-04-06 07:34:00,60.1,32.9,29.99,ENE,68,0.9,2.5,36,0.00,,,0.00,WUHU216HW,2013-04-06 14:34:00,
2013-04-06 07:37:00,60.7,32.6,29.99,ENE,68,1.8,2.5,35,0.00,,,0.00,WUHU216HW,2013-04-06 14:37:00,
2013-04-06 07:38:00,60.8,32.8,29.99,ENE,68,1.1,2.5,35,0.00,,,0.00,WUHU216HW,2013-04-06 14:38:00,
2013-04-06 07:39:00,60.8,32.0,29.99,ENE,68,1.1,2.5,34,0.00,,,0.00,WUHU216HW,2013-04-06 14:39:00,
2013-04-06 07:42:00,61.4,32.5,29.99,ENE,68,1.8,2.0,34,0.00,,,0.00,WUHU216HW,2013-04-06 14:42:00,
2013-04-06 07:43:00,61.6,32.7,29.99,ENE,68,2.2,2.2,34,0.00,,,0.00,WUHU216HW,2013-04-06 14:43:00,
2013-04-06 07:45:00,61.6,32.7,29.98,NNE,23,2.5,2.5,34,0.00,,,0.00,WUHU216HW,2013-04-06 14:45:00,
2013-04-06 07:47:00,61.9,32.3,29.98,ESE,113,1.1,2.5,33,0.00,,,0.00,WUHU216HW,2013-04-06 14:47:00,
2013-04-06 07:50:00,62.3,32.6,29.98,East,90,2.5,2.5,33,0.00,,,0.00,WUHU216HW,2013-04-06 14:50:00,
2013-04-06 07:52:00,62.6,32.9,29.98,NE,45,2.0,3.4,33,0.00,,,0.00,WUHU216HW,2013-04-06 14:52:00,
2013-04-06 07:55:00,63.0,32.6,29.98,ENE,68,2.9,4.0,32,0.00,,,0.00,WUHU216HW,2013-04-06 14:55:00,
2013-04-06 07:57:00,63.2,32.7,29.99,East,90,2.2,4.0,32,0.00,,,0.00,WUHU216HW,2013-04-06 14:57:00,
2013-04-06 07:58:00,63.4,32.9,29.99,NNE,23,2.7,4.0,32,0.00,,,0.00,WUHU216HW,2013-04-06 14:58:00,
2013-04-06 08:00:00,63.5,33.0,29.99,NNE,23,1.8,4.0,32,0.00,,,0.00,WUHU216HW,2013-04-06 15:00:00,
2013-04-06 08:01:00,63.5,33.0,29.99,ENE,68,1.1,4.0,32,0.00,,,0.00,WUHU216HW,2013-04-06 15:01:00,
2013-04-06 08:02:00,63.7,32.5,29.99,ENE,68,3.4,4.0,31,0.00,,,0.00,WUHU216HW,2013-04-06 15:02:00,
2013-04-06 08:03:00,63.7,32.5,29.99,ENE,68,3.4,4.0,31,0.00,,,0.00,WUHU216HW,2013-04-06 15:03:00,
2013-04-06 08:05:00,63.9,32.7,29.99,NNW,338,3.8,4.7,31,0.00,,,0.00,WUHU216HW,2013-04-06 15:05:00,
2013-04-06 08:07:00,64.1,32.0,29.99,NNE,23,5.4,6.7,30,0.00,,,0.00,WUHU216HW,2013-04-06 15:07:00,
2013-04-06 08:08:00,64.1,32.0,29.99,NE,45,5.4,6.7,30,0.00,,,0.00,WUHU216HW,2013-04-06 15:08:00,
2013-04-06 08:10:00,64.1,32.0,29.99,NNE,23,6.3,7.6,30,0.00,,,0.00,WUHU216HW,2013-04-06 15:10:00,
2013-04-06 08:12:00,64.1,32.0,29.99,NE,45,3.1,7.6,30,0.00,,,0.00,WUHU216HW,2013-04-06 15:12:00,
2013-04-06 08:13:00,64.1,32.0,29.99,NNE,23,3.1,7.6,30,0.00,,,0.00,WUHU216HW,2013-04-06 15:13:00,
2013-04-06 08:15:00,64.3,32.2,29.99,North,0,2.5,7.6,30,0.00,,,0.00,WUHU216HW,2013-04-06 15:15:00,
2013-04-06 08:17:00,64.4,32.4,29.99,NE,45,2.7,7.6,30,0.00,,,0.00,WUHU216HW,2013-04-06 15:17:00,
2013-04-06 08:18:00,64.4,32.4,29.99,North,0,2.0,7.6,30,0.00,,,0.00,WUHU216HW,2013-04-06 15:18:00,
2013-04-06 08:20:00,64.4,32.4,29.99,NE,45,1.8,6.5,30,0.00,,,0.00,WUHU216HW,2013-04-06 15:20:00,
2013-04-06 08:22:00,64.4,32.4,29.99,NE,45,4.5,6.5,30,0.00,,,0.00,WUHU216HW,2013-04-06 15:22:00,
2013-04-06 08:23:00,64.4,32.4,29.99,NNE,23,2.2,6.5,30,0.00,,,0.00,WUHU216HW,2013-04-06 15:23:00,
2013-04-06 08:25:00,64.6,32.6,29.99,NE,45,2.5,6.5,30,0.00,,,0.00,WUHU216HW,2013-04-06 15:25:00,
2013-04-06 08:27:00,64.6,32.6,29.99,NNW,338,2.0,4.7,30,0.00,,,0.00,WUHU216HW,2013-04-06 15:27:00,
2013-04-06 08:28:00,64.8,32.8,29.99,NNW,338,2.0,4.7,30,0.00,,,0.00,WUHU216HW,2013-04-06 15:28:00,
2013-04-06 08:31:00,64.6,32.6,29.99,NNW,338,2.5,4.7,30,0.00,,,0.00,WUHU216HW,2013-04-06 15:31:00,
2013-04-06 08:32:00,64.6,32.6,29.99,North,0,1.8,3.1,30,0.00,,,0.00,WUHU216HW,2013-04-06 15:32:00,
2013-04-06 08:33:00,64.6,32.6,29.99,North,0,1.3,3.1,30,0.00,,,0.00,WUHU216HW,2013-04-06 15:33:00,
2013-04-06 08:34:00,64.4,32.4,29.99,North,0,2.7,3.1,30,0.00,,,0.00,WUHU216HW,2013-04-06 15:34:00,
2013-04-06 08:36:00,64.8,32.8,29.99,NNW,338,0.9,2.7,30,0.00,,,0.00,WUHU216HW,2013-04-06 15:36:00,
2013-04-06 08:38:00,65.0,32.9,29.99,SE,135,1.1,2.7,30,0.00,,,0.00,WUHU216HW,2013-04-06 15:38:00,
2013-04-06 08:39:00,65.2,33.0,29.99,East,90,3.6,4.0,30,0.00,,,0.00,WUHU216HW,2013-04-06 15:39:00,
2013-04-06 08:42:00,65.5,33.4,29.99,ESE,113,1.8,4.0,30,0.00,,,0.00,WUHU216HW,2013-04-06 15:42:00,
2013-04-06 08:43:00,65.9,33.7,29.99,ENE,68,0.7,4.0,30,0.00,,,0.00,WUHU216HW,2013-04-06 15:43:00,
2013-04-06 08:45:00,66.2,34.0,29.99,NNW,338,0.0,4.0,30,0.00,,,0.00,WUHU216HW,2013-04-06 15:45:00,
2013-04-06 08:47:00,66.2,34.0,29.99,ESE,113,1.8,4.0,30,0.00,,,0.00,WUHU216HW,2013-04-06 15:47:00,
2013-04-06 08:48:00,66.2,33.0,29.99,ESE,113,1.1,4.0,29,0.00,,,0.00,WUHU216HW,2013-04-06 15:48:00,
2013-04-06 08:49:00,66.4,34.2,29.99,ENE,68,0.7,3.8,30,0.00,,,0.00,WUHU216HW,2013-04-06 15:49:00,
2013-04-06 08:50:00,66.4,33.1,29.99,North,0,3.4,3.4,29,0.00,,,0.00,WUHU216HW,2013-04-06 15:50:00,
2013-04-06 08:52:00,66.6,33.3,29.99,NE,45,5.1,5.1,29,0.00,,,0.00,WUHU216HW,2013-04-06 15:52:00,
2013-04-06 08:53:00,66.8,33.5,29.99,NNE,23,4.0,6.3,29,0.00,,,0.00,WUHU216HW,2013-04-06 15:53:00,
2013-04-06 08:55:00,67.0,33.6,29.99,NE,45,0.2,6.3,29,0.00,,,0.00,WUHU216HW,2013-04-06 15:55:00,
2013-04-06 08:57:00,67.1,33.8,29.99,NE,45,2.5,6.3,29,0.00,,,0.00,WUHU216HW,2013-04-06 15:57:00,
2013-04-06 08:58:00,67.3,32.9,29.99,NE,45,2.5,6.3,28,0.00,,,0.00,WUHU216HW,2013-04-06 15:58:00,
2013-04-06 09:00:00,67.7,33.2,29.99,NE,45,5.1,6.3,28,0.00,,,0.00,WUHU216HW,2013-04-06 16:00:00,
2013-04-06 09:03:00,67.9,33.3,29.99,ENE,68,4.7,6.3,28,0.00,,,0.00,WUHU216HW,2013-04-06 16:03:00,
2013-04-06 09:05:00,68.0,33.5,29.99,NNW,338,3.1,6.0,28,0.00,,,0.00,WUHU216HW,2013-04-06 16:05:00,
2013-04-06 09:06:00,68.0,31.5,29.99,NW,315,1.8,6.0,26,0.00,,,0.00,WUHU216HW,2013-04-06 16:06:00,
2013-04-06 09:08:00,68.2,32.7,29.99,East,90,1.1,6.0,27,0.00,,,0.00,WUHU216HW,2013-04-06 16:08:00,
2013-04-06 09:10:00,68.2,31.7,29.99,ENE,68,3.4,6.0,26,0.00,,,0.00,WUHU216HW,2013-04-06 16:10:00,
2013-04-06 09:11:00,68.2,31.7,29.99,NE,45,7.4,7.4,26,0.00,,,0.00,WUHU216HW,2013-04-06 16:11:00,
2013-04-06 09:14:00,68.4,31.8,29.99,ENE,68,3.4,7.4,26,0.00,,,0.00,WUHU216HW,2013-04-06 16:14:00,
2013-04-06 09:15:00,68.6,32.0,29.99,NE,45,6.9,7.4,26,0.00,,,0.00,WUHU216HW,2013-04-06 16:15:00,
2013-04-06 09:16:00,68.6,32.0,29.99,NE,45,6.9,7.4,26,0.00,,,0.00,WUHU216HW,2013-04-06 16:16:00,
2013-04-06 09:20:00,68.8,32.1,29.99,ENE,68,2.0,7.4,26,0.00,,,0.00,WUHU216HW,2013-04-06 16:20:00,
2013-04-06 09:21:00,68.8,32.1,29.99,North,0,7.4,7.4,26,0.00,,,0.00,WUHU216HW,2013-04-06 16:21:00,
2013-04-06 09:22:00,68.8,31.2,29.99,NE,45,5.4,7.4,25,0.00,,,0.00,WUHU216HW,2013-04-06 16:22:00,
2013-04-06 09:25:00,69.1,31.4,29.99,NNE,23,4.7,10.1,25,0.00,,,0.00,WUHU216HW,2013-04-06 16:25:00,
2013-04-06 09:26:00,69.1,31.4,29.99,NNE,23,6.5,10.1,25,0.00,,,0.00,WUHU216HW,2013-04-06 16:26:00,
2013-04-06 09:27:00,69.1,31.4,29.99,NE,45,5.1,10.1,25,0.00,,,0.00,WUHU216HW,2013-04-06 16:27:00,
2013-04-06 09:30:00,69.3,31.6,29.99,ENE,68,3.4,10.1,25,0.00,,,0.00,WUHU216HW,2013-04-06 16:30:00,
2013-04-06 09:32:00,69.5,32.8,29.99,ENE,68,1.8,10.1,26,0.00,,,0.00,WUHU216HW,2013-04-06 16:32:00,
2013-04-06 09:35:00,69.8,32.0,29.99,ENE,68,5.4,9.2,25,0.00,,,0.00,WUHU216HW,2013-04-06 16:35:00,
2013-04-06 09:37:00,70.0,32.2,29.99,NNE,23,7.8,9.2,25,0.00,,,0.00,WUHU216HW,2013-04-06 16:37:00,
2013-04-06 09:40:00,70.2,32.3,29.99,NNE,23,7.6,9.2,25,0.00,,,0.00,WUHU216HW,2013-04-06 16:40:00,
2013-04-06 09:42:00,70.4,31.5,29.99,NNW,338,2.2,9.2,24,0.00,,,0.00,WUHU216HW,2013-04-06 16:42:00,
2013-04-06 09:47:00,70.6,31.7,29.99,NNE,23,5.4,7.8,24,0.00,,,0.00,WUHU216HW,2013-04-06 16:47:00,
2013-04-06 09:52:00,70.9,32.0,29.99,NE,45,4.9,6.9,24,0.00,,,0.00,WUHU216HW,2013-04-06 16:52:00,
2013-04-06 09:53:00,70.9,32.0,29.99,ENE,68,6.3,6.9,24,0.00,,,0.00,WUHU216HW,2013-04-06 16:53:00,
2013-04-06 09:58:00,71.3,32.2,29.99,NNE,23,5.8,7.8,24,0.00,,,0.00,WUHU216HW,2013-04-06 16:58:00,
2013-04-06 10:03:00,70.9,31.0,29.99,NNW,338,4.0,7.8,23,0.00,,,0.00,WUHU216HW,2013-04-06 17:03:00,
2013-04-06 10:04:00,70.9,29.9,29.99,North,0,2.0,7.6,22,0.00,,,0.00,WUHU216HW,2013-04-06 17:04:00,
2013-04-06 10:08:00,70.7,30.8,29.99,NW,315,3.8,6.9,23,0.00,,,0.00,WUHU216HW,2013-04-06 17:08:00,
2013-04-06 10:09:00,70.7,30.8,29.99,NNW,338,5.1,6.9,23,0.00,,,0.00,WUHU216HW,2013-04-06 17:09:00,
2013-04-06 10:13:00,70.6,30.6,29.99,NE,45,5.4,6.9,23,0.00,,,0.00,WUHU216HW,2013-04-06 17:13:00,
2013-04-06 10:14:00,70.6,30.6,29.99,NNE,23,7.4,7.4,23,0.00,,,0.00,WUHU216HW,2013-04-06 17:14:00,
2013-04-06 10:19:00,71.1,31.1,29.99,ENE,68,2.0,7.6,23,0.00,,,0.00,WUHU216HW,2013-04-06 17:19:00,
2013-04-06 10:24:00,72.2,32.0,29.98,ESE,113,2.0,7.6,23,0.00,,,0.00,WUHU216HW,2013-04-06 17:24:00,
2013-04-06 10:25:00,72.4,32.1,29.98,ESE,113,3.6,5.1,23,0.00,,,0.00,WUHU216HW,2013-04-06 17:25:00,
2013-04-06 10:30:00,73.3,32.0,29.98,SSE,158,2.0,5.1,22,0.00,,,0.00,WUHU216HW,2013-04-06 17:30:00,
2013-04-06 10:35:00,73.4,32.0,29.98,SSE,158,2.5,6.3,22,0.00,,,0.00,WUHU216HW,2013-04-06 17:35:00,
2013-04-06 10:40:00,74.3,32.9,29.98,SE,135,2.7,6.3,22,0.00,,,0.00,WUHU216HW,2013-04-06 17:40:00,
2013-04-06 10:45:00,75.1,33.4,29.98,SSE,158,2.5,5.8,22,0.00,,,0.00,WUHU216HW,2013-04-06 17:45:00,
2013-04-06 10:46:00,75.2,33.6,29.98,SSE,158,2.5,5.8,22,0.00,,,0.00,WUHU216HW,2013-04-06 17:46:00,
2013-04-06 10:50:00,75.8,32.9,29.98,SW,225,2.9,5.8,21,0.00,,,0.00,WUHU216HW,2013-04-06 17:50:00,
2013-04-06 10:51:00,75.8,32.9,29.98,SSW,203,6.0,6.0,21,0.00,,,0.00,WUHU216HW,2013-04-06 17:51:00,
2013-04-06 10:55:00,75.8,30.2,29.98,North,0,3.4,6.0,19,0.00,,,0.00,WUHU216HW,2013-04-06 17:55:00,
2013-04-06 10:56:00,75.6,30.2,29.98,NW,315,1.8,6.0,19,0.00,,,0.00,WUHU216HW,2013-04-06 17:56:00,
2013-04-06 10:57:00,75.6,30.2,29.98,NW,315,1.8,6.0,19,0.00,,,0.00,WUHU216HW,2013-04-06 17:57:00,
2013-04-06 11:00:00,74.7,27.8,29.97,West,270,4.3,6.0,18,0.00,,,0.00,WUHU216HW,2013-04-06 18:00:00,
2013-04-06 11:02:00,74.5,29.3,29.97,SSE,158,1.6,4.7,19,0.00,,,0.00,WUHU216HW,2013-04-06 18:02:00,
2013-04-06 11:05:00,74.5,31.0,29.97,ESE,113,7.6,9.6,20,0.00,,,0.00,WUHU216HW,2013-04-06 18:05:00,
2013-04-06 11:06:00,74.5,31.0,29.97,East,90,8.3,9.6,20,0.00,,,0.00,WUHU216HW,2013-04-06 18:06:00,
2013-04-06 11:07:00,74.7,32.1,29.97,ENE,68,6.3,9.6,21,0.00,,,0.00,WUHU216HW,2013-04-06 18:07:00,
2013-04-06 11:10:00,75.2,32.5,29.97,ENE,68,9.2,9.6,21,0.00,,,0.00,WUHU216HW,2013-04-06 18:10:00,
2013-04-06 11:11:00,75.2,31.5,29.97,ESE,113,6.9,9.6,20,0.00,,,0.00,WUHU216HW,2013-04-06 18:11:00,
2013-04-06 11:13:00,75.6,31.8,29.97,East,90,9.2,9.6,20,0.00,,,0.00,WUHU216HW,2013-04-06 18:13:00,
2013-04-06 11:16:00,76.0,30.4,29.97,ESE,113,3.8,9.2,19,0.00,,,0.00,WUHU216HW,2013-04-06 18:16:00,
2013-04-06 11:18:00,76.3,30.7,29.97,SSE,158,4.3,9.2,19,0.00,,,0.00,WUHU216HW,2013-04-06 18:18:00,
2013-04-06 11:21:00,76.7,31.0,29.97,SE,135,3.6,9.2,19,0.00,,,0.00,WUHU216HW,2013-04-06 18:21:00,
2013-04-06 11:22:00,77.0,32.9,29.97,SSW,203,5.1,9.2,20,0.00,,,0.00,WUHU216HW,2013-04-06 18:22:00,
2013-04-06 11:23:00,77.0,31.3,29.97,NNE,23,2.0,7.8,19,0.00,,,0.00,WUHU216HW,2013-04-06 18:23:00,
2013-04-06 11:24:00,77.2,31.4,29.97,South,180,3.8,7.6,19,0.00,,,0.00,WUHU216HW,2013-04-06 18:24:00,
2013-04-06 11:26:00,77.4,29.9,29.97,SSW,203,8.3,8.7,18,0.00,,,0.00,WUHU216HW,2013-04-06 18:26:00,
2013-04-06 11:27:00,77.6,30.1,29.97,SSE,158,4.7,8.7,18,0.00,,,0.00,WUHU216HW,2013-04-06 18:27:00,
2013-04-06 11:28:00,77.6,30.1,29.97,SSW,203,2.9,8.7,18,0.00,,,0.00,WUHU216HW,2013-04-06 18:28:00,
2013-04-06 11:29:00,77.8,30.2,29.97,SW,225,1.8,8.7,18,0.00,,,0.00,WUHU216HW,2013-04-06 18:29:00,
2013-04-06 11:31:00,77.8,30.2,29.97,NE,45,1.1,8.7,18,0.00,,,0.00,WUHU216HW,2013-04-06 18:31:00,
2013-04-06 11:32:00,77.8,30.2,29.97,South,180,1.6,8.7,18,0.00,,,0.00,WUHU216HW,2013-04-06 18:32:00,
2013-04-06 11:33:00,77.9,30.3,29.97,ENE,68,8.1,8.7,18,0.00,,,0.00,WUHU216HW,2013-04-06 18:33:00,
2013-04-06 11:34:00,77.9,30.3,29.96,East,90,5.6,8.7,18,0.00,,,0.00,WUHU216HW,2013-04-06 18:34:00,
2013-04-06 11:37:00,78.1,30.5,29.96,ESE,113,1.3,8.1,18,0.00,,,0.00,WUHU216HW,2013-04-06 18:37:00,
2013-04-06 11:38:00,78.1,30.5,29.96,SSW,203,1.8,8.1,18,0.00,,,0.00,WUHU216HW,2013-04-06 18:38:00,
2013-04-06 11:39:00,78.1,28.8,29.96,NW,315,1.8,8.1,17,0.00,,,0.00,WUHU216HW,2013-04-06 18:39:00,
2013-04-06 11:42:00,77.9,28.6,29.96,SW,225,4.3,8.1,17,0.00,,,0.00,WUHU216HW,2013-04-06 18:42:00,
2013-04-06 11:43:00,77.8,28.5,29.96,SW,225,5.4,7.6,17,0.00,,,0.00,WUHU216HW,2013-04-06 18:43:00,
2013-04-06 11:44:00,77.8,28.5,29.96,WSW,248,5.1,7.6,17,0.00,,,0.00,WUHU216HW,2013-04-06 18:44:00,
2013-04-06 11:47:00,78.1,28.8,29.96,WSW,248,1.6,6.0,17,0.00,,,0.00,WUHU216HW,2013-04-06 18:47:00,
2013-04-06 11:48:00,78.1,28.8,29.96,SSE,158,1.1,6.0,17,0.00,,,0.00,WUHU216HW,2013-04-06 18:48:00,
2013-04-06 11:50:00,78.1,28.8,29.96,SW,225,1.3,6.0,17,0.00,,,0.00,WUHU216HW,2013-04-06 18:50:00,
2013-04-06 11:52:00,78.5,30.8,29.96,South,180,3.4,6.0,18,0.00,,,0.00,WUHU216HW,2013-04-06 18:52:00,
2013-04-06 11:53:00,78.5,30.8,29.96,SE,135,6.0,6.0,18,0.00,,,0.00,WUHU216HW,2013-04-06 18:53:00,
2013-04-06 11:55:00,78.7,30.9,29.96,SE,135,4.7,6.0,18,0.00,,,0.00,WUHU216HW,2013-04-06 18:55:00,
2013-04-06 11:58:00,79.0,31.2,29.95,SSW,203,2.7,6.0,18,0.00,,,0.00,WUHU216HW,2013-04-06 18:58:00,
2013-04-06 11:59:00,79.2,29.7,29.95,NE,45,1.6,6.0,17,0.00,,,0.00,WUHU216HW,2013-04-06 18:59:00,
2013-04-06 12:00:00,79.2,29.7,29.95,ESE,113,2.9,6.0,17,0.00,,,0.00,WUHU216HW,2013-04-06 19:00:00,
2013-04-06 12:03:00,79.2,29.7,29.95,SE,135,4.3,6.0,17,0.00,,,0.00,WUHU216HW,2013-04-06 19:03:00,
2013-04-06 12:04:00,79.4,29.8,29.95,South,180,9.2,9.2,17,0.00,,,0.00,WUHU216HW,2013-04-06 19:04:00,
2013-04-06 12:05:00,79.6,30.0,29.95,South,180,9.8,9.8,17,0.00,,,0.00,WUHU216HW,2013-04-06 19:05:00,
2013-04-06 12:08:00,79.9,26.9,29.95,South,180,10.5,11.4,15,0.00,,,0.00,WUHU216HW,2013-04-06 19:08:00,
2013-04-06 12:09:00,80.1,23.7,29.95,SW,225,10.1,15.4,13,0.00,,,0.00,WUHU216HW,2013-04-06 19:09:00,
2013-04-06 12:10:00,80.1,23.7,29.95,WSW,248,14.3,15.4,13,0.00,,,0.00,WUHU216HW,2013-04-06 19:10:00,
2013-04-06 12:13:00,80.1,23.7,29.95,SSW,203,12.1,15.4,13,0.00,,,0.00,WUHU216HW,2013-04-06 19:13:00,
2013-04-06 12:15:00,80.3,25.6,29.95,WSW,248,9.6,15.4,14,0.00,,,0.00,WUHU216HW,2013-04-06 19:15:00,
2013-04-06 12:18:00,80.3,22.1,29.94,SW,225,11.9,15.4,12,0.00,,,0.00,WUHU216HW,2013-04-06 19:18:00,
2013-04-06 12:20:00,80.1,23.7,29.94,WSW,248,6.9,12.8,13,0.00,,,0.00,WUHU216HW,2013-04-06 19:20:00,
2013-04-06 12:21:00,80.1,22.1,29.94,WSW,248,13.4,13.4,12,0.00,,,0.00,WUHU216HW,2013-04-06 19:21:00,
2013-04-06 12:23:00,79.9,23.6,29.94,WSW,248,7.4,13.4,13,0.00,,,0.00,WUHU216HW,2013-04-06 19:23:00,
2013-04-06 12:25:00,80.1,23.7,29.94,SW,225,6.3,13.4,13,0.00,,,0.00,WUHU216HW,2013-04-06 19:25:00,
2013-04-06 12:26:00,80.1,23.7,29.94,SSW,203,10.1,13.4,13,0.00,,,0.00,WUHU216HW,2013-04-06 19:26:00,
2013-04-06 12:28:00,80.3,23.9,29.94,WSW,248,6.5,13.4,13,0.00,,,0.00,WUHU216HW,2013-04-06 19:28:00,
2013-04-06 12:30:00,80.3,23.9,29.94,SSW,203,9.6,13.4,13,0.00,,,0.00,WUHU216HW,2013-04-06 19:30:00,
2013-04-06 12:31:00,80.3,23.9,29.94,WSW,248,4.7,11.9,13,0.00,,,0.00,WUHU216HW,2013-04-06 19:31:00,
2013-04-06 12:35:00,80.5,24.0,29.94,SSW,203,7.6,10.1,13,0.00,,,0.00,WUHU216HW,2013-04-06 19:35:00,
2013-04-06 12:36:00,80.5,25.8,29.94,South,180,7.8,10.1,14,0.00,,,0.00,WUHU216HW,2013-04-06 19:36:00,
2013-04-06 12:40:00,80.6,24.1,29.94,SSW,203,11.0,13.0,13,0.00,,,0.00,WUHU216HW,2013-04-06 19:40:00,
2013-04-06 12:41:00,80.6,24.1,29.94,South,180,8.5,13.0,13,0.00,,,0.00,WUHU216HW,2013-04-06 19:41:00,
2013-04-06 12:46:00,80.8,24.3,29.94,SW,225,6.0,13.2,13,0.00,,,0.00,WUHU216HW,2013-04-06 19:46:00,
2013-04-06 12:51:00,80.8,24.3,29.94,SW,225,7.6,15.4,13,0.00,,,0.00,WUHU216HW,2013-04-06 19:51:00,
2013-04-06 12:52:00,80.8,24.3,29.94,West,270,4.0,15.4,13,0.00,,,0.00,WUHU216HW,2013-04-06 19:52:00,
2013-04-06 12:57:00,80.6,22.5,29.94,WSW,248,12.1,17.2,12,0.00,,,0.00,WUHU216HW,2013-04-06 19:57:00,
2013-04-06 13:02:00,80.6,24.1,29.94,SW,225,14.1,17.2,13,0.00,,,0.00,WUHU216HW,2013-04-06 20:02:00,
2013-04-06 13:07:00,80.8,22.6,29.94,WSW,248,10.5,19.2,12,0.00,,,0.00,WUHU216HW,2013-04-06 20:07:00,
2013-04-06 13:08:00,80.8,20.9,29.93,SW,225,8.9,19.2,11,0.00,,,0.00,WUHU216HW,2013-04-06 20:08:00,
2013-04-06 13:12:00,80.8,20.9,29.93,WSW,248,10.1,19.2,11,0.00,,,0.00,WUHU216HW,2013-04-06 20:12:00,
2013-04-06 13:13:00,80.8,20.9,29.93,SSW,203,14.8,19.2,11,0.00,,,0.00,WUHU216HW,2013-04-06 20:13:00,
2013-04-06 13:17:00,80.6,20.8,29.93,WSW,248,13.6,16.3,11,0.00,,,0.00,WUHU216HW,2013-04-06 20:17:00,
2013-04-06 13:18:00,80.5,20.6,29.93,SW,225,16.8,16.8,11,0.00,,,0.00,WUHU216HW,2013-04-06 20:18:00,
2013-04-06 13:22:00,80.6,22.5,29.93,WSW,248,12.1,16.8,12,0.00,,,0.00,WUHU216HW,2013-04-06 20:22:00,
2013-04-06 13:23:00,80.8,22.6,29.93,SSW,203,9.2,16.8,12,0.00,,,0.00,WUHU216HW,2013-04-06 20:23:00,
2013-04-06 13:27:00,80.6,22.5,29.93,SW,225,10.5,17.0,12,0.00,,,0.00,WUHU216HW,2013-04-06 20:27:00,
2013-04-06 13:28:00,80.6,22.5,29.93,WSW,248,7.6,17.0,12,0.00,,,0.00,WUHU216HW,2013-04-06 20:28:00,
2013-04-06 13:32:00,80.6,22.5,29.93,SSW,203,7.2,17.0,12,0.00,,,0.00,WUHU216HW,2013-04-06 20:32:00,
2013-04-06 13:33:00,80.8,22.6,29.93,WSW,248,6.0,17.0,12,0.00,,,0.00,WUHU216HW,2013-04-06 20:33:00,
2013-04-06 13:37:00,81.0,21.1,29.92,WSW,248,20.4,20.4,11,0.00,,,0.00,WUHU216HW,2013-04-06 20:37:00,
2013-04-06 13:38:00,80.8,20.9,29.92,WSW,248,15.9,20.4,11,0.00,,,0.00,WUHU216HW,2013-04-06 20:38:00,
2013-04-06 13:39:00,80.6,22.5,29.92,WSW,248,8.3,20.4,12,0.00,,,0.00,WUHU216HW,2013-04-06 20:39:00,
2013-04-06 13:43:00,80.6,22.5,29.92,WSW,248,9.8,20.4,12,0.00,,,0.00,WUHU216HW,2013-04-06 20:43:00,
2013-04-06 13:44:00,80.6,22.5,29.92,West,270,9.2,20.4,12,0.00,,,0.00,WUHU216HW,2013-04-06 20:44:00,
2013-04-06 13:45:00,80.8,22.6,29.92,SW,225,6.9,20.4,12,0.00,,,0.00,WUHU216HW,2013-04-06 20:45:00,
2013-04-06 13:48:00,81.0,22.8,29.92,WSW,248,8.1,17.9,12,0.00,,,0.00,WUHU216HW,2013-04-06 20:48:00,
2013-04-06 13:50:00,81.0,22.8,29.92,WSW,248,6.9,17.9,12,0.00,,,0.00,WUHU216HW,2013-04-06 20:50:00,
2013-04-06 13:53:00,81.4,23.0,29.92,SW,225,6.3,17.9,12,0.00,,,0.00,WUHU216HW,2013-04-06 20:53:00,
2013-04-06 13:55:00,81.7,23.3,29.92,WNW,293,8.5,17.9,12,0.00,,,0.00,WUHU216HW,2013-04-06 20:55:00,
2013-04-06 13:56:00,81.7,23.3,29.92,WSW,248,12.5,17.9,12,0.00,,,0.00,WUHU216HW,2013-04-06 20:56:00,
2013-04-06 13:58:00,81.7,23.3,29.92,West,270,7.6,14.3,12,0.00,,,0.00,WUHU216HW,2013-04-06 20:58:00,
2013-04-06 14:00:00,81.5,23.2,29.92,SW,225,4.9,14.3,12,0.00,,,0.00,WUHU216HW,2013-04-06 21:00:00,
2013-04-06 14:01:00,81.7,23.3,29.92,WSW,248,10.1,14.3,12,0.00,,,0.00,WUHU216HW,2013-04-06 21:01:00,
2013-04-06 14:03:00,81.5,24.8,29.92,SW,225,6.7,14.3,13,0.00,,,0.00,WUHU216HW,2013-04-06 21:03:00,
2013-04-06 14:04:00,81.7,25.0,29.92,South,180,9.8,14.3,13,0.00,,,0.00,WUHU216HW,2013-04-06 21:04:00,
2013-04-06 14:05:00,81.7,25.0,29.92,SW,225,7.2,14.3,13,0.00,,,0.00,WUHU216HW,2013-04-06 21:05:00,
2013-04-06 14:07:00,82.1,25.3,29.92,WSW,248,6.9,12.1,13,0.00,,,0.00,WUHU216HW,2013-04-06 21:07:00,
2013-04-06 14:08:00,82.1,25.3,29.92,SW,225,16.3,16.3,13,0.00,,,0.00,WUHU216HW,2013-04-06 21:08:00,
2013-04-06 14:09:00,82.3,25.5,29.92,SW,225,12.5,16.3,13,0.00,,,0.00,WUHU216HW,2013-04-06 21:09:00,
2013-04-06 14:10:00,82.4,25.6,29.92,SSW,203,6.3,16.3,13,0.00,,,0.00,WUHU216HW,2013-04-06 21:10:00,
2013-04-06 14:12:00,82.4,24.0,29.91,SSW,203,7.6,16.3,12,0.00,,,0.00,WUHU216HW,2013-04-06 21:12:00,
2013-04-06 14:14:00,82.4,24.0,29.91,SSW,203,5.8,16.3,12,0.00,,,0.00,WUHU216HW,2013-04-06 21:14:00,
2013-04-06 14:15:00,82.4,24.0,29.91,SSW,203,8.3,16.3,12,0.00,,,0.00,WUHU216HW,2013-04-06 21:15:00,
2013-04-06 14:17:00,82.6,24.0,29.91,WSW,248,9.6,16.3,12,0.00,,,0.00,WUHU216HW,2013-04-06 21:17:00,
2013-04-06 14:19:00,82.4,24.0,29.91,WSW,248,5.4,12.5,12,0.00,,,0.00,WUHU216HW,2013-04-06 21:19:00,
2013-04-06 14:20:00,82.4,24.0,29.91,SW,225,8.5,12.1,12,0.00,,,0.00,WUHU216HW,2013-04-06 21:20:00,
2013-04-06 14:22:00,82.6,25.8,29.91,SW,225,10.3,12.1,13,0.00,,,0.00,WUHU216HW,2013-04-06 21:22:00,
2013-04-06 14:24:00,82.8,25.8,29.91,WSW,248,6.3,12.8,13,0.00,,,0.00,WUHU216HW,2013-04-06 21:24:00,
2013-04-06 14:25:00,83.0,24.3,29.91,WSW,248,10.5,12.8,12,0.00,,,0.00,WUHU216HW,2013-04-06 21:25:00,
2013-04-06 14:27:00,83.0,24.3,29.91,WSW,248,16.6,16.6,12,0.00,,,0.00,WUHU216HW,2013-04-06 21:27:00,
2013-04-06 14:29:00,83.0,24.3,29.91,SW,225,8.3,16.6,12,0.00,,,0.00,WUHU216HW,2013-04-06 21:29:00,
2013-04-06 14:31:00,83.0,24.3,29.91,WSW,248,5.4,16.6,12,0.00,,,0.00,WUHU216HW,2013-04-06 21:31:00,
2013-04-06 14:32:00,82.8,24.1,29.91,West,270,16.3,17.2,12,0.00,,,0.00,WUHU216HW,2013-04-06 21:32:00,
2013-04-06 14:34:00,82.4,24.0,29.90,WSW,248,8.7,17.2,12,0.00,,,0.00,WUHU216HW,2013-04-06 21:34:00,
2013-04-06 14:35:00,82.4,24.0,29.90,WSW,248,7.6,17.2,12,0.00,,,0.00,WUHU216HW,2013-04-06 21:35:00,
2013-04-06 14:37:00,82.1,25.3,29.91,SW,225,12.3,17.2,13,0.00,,,0.00,WUHU216HW,2013-04-06 21:37:00,
2013-04-06 14:38:00,82.1,25.3,29.91,SSW,203,11.4,17.2,13,0.00,,,0.00,WUHU216HW,2013-04-06 21:38:00,
2013-04-06 14:40:00,81.9,25.2,29.91,SW,225,7.6,17.2,13,0.00,,,0.00,WUHU216HW,2013-04-06 21:40:00,
2013-04-06 14:42:00,82.1,25.3,29.90,SW,225,6.9,16.8,13,0.00,,,0.00,WUHU216HW,2013-04-06 21:42:00,
2013-04-06 14:43:00,82.1,25.3,29.90,SW,225,7.4,16.8,13,0.00,,,0.00,WUHU216HW,2013-04-06 21:43:00,
2013-04-06 14:45:00,82.1,25.3,29.90,SW,225,7.6,16.3,13,0.00,,,0.00,WUHU216HW,2013-04-06 21:45:00,
2013-04-06 14:47:00,82.3,25.5,29.90,WSW,248,8.3,14.5,13,0.00,,,0.00,WUHU216HW,2013-04-06 21:47:00,
2013-04-06 14:48:00,82.3,25.5,29.90,SW,225,6.5,14.5,13,0.00,,,0.00,WUHU216HW,2013-04-06 21:48:00,
2013-04-06 14:51:00,82.3,23.8,29.90,SW,225,10.1,16.1,12,0.00,,,0.00,WUHU216HW,2013-04-06 21:51:00,
2013-04-06 14:53:00,82.3,23.8,29.90,SW,225,3.1,16.1,12,0.00,,,0.00,WUHU216HW,2013-04-06 21:53:00,
2013-04-06 14:56:00,82.3,23.8,29.90,WSW,248,11.2,16.1,12,0.00,,,0.00,WUHU216HW,2013-04-06 21:56:00,
2013-04-06 14:58:00,82.1,23.6,29.90,SW,225,6.9,16.1,12,0.00,,,0.00,WUHU216HW,2013-04-06 21:58:00,
2013-04-06 15:01:00,82.3,25.5,29.90,SW,225,10.5,12.8,13,0.00,,,0.00,WUHU216HW,2013-04-06 22:01:00,
2013-04-06 15:03:00,82.4,25.6,29.90,SW,225,8.9,12.8,13,0.00,,,0.00,WUHU216HW,2013-04-06 22:03:00,
2013-04-06 15:04:00,82.4,25.6,29.90,SW,225,8.7,12.8,13,0.00,,,0.00,WUHU216HW,2013-04-06 22:04:00,
2013-04-06 15:06:00,82.4,24.0,29.90,WSW,248,9.4,13.6,12,0.00,,,0.00,WUHU216HW,2013-04-06 22:06:00,
2013-04-06 15:09:00,82.4,25.6,29.90,SW,225,8.5,13.6,13,0.00,,,0.00,WUHU216HW,2013-04-06 22:09:00,
2013-04-06 15:12:00,82.3,25.5,29.90,SSW,203,6.9,13.6,13,0.00,,,0.00,WUHU216HW,2013-04-06 22:12:00,
2013-04-06 15:14:00,82.4,25.6,29.90,SSW,203,11.2,14.8,13,0.00,,,0.00,WUHU216HW,2013-04-06 22:14:00,
2013-04-06 15:15:00,82.4,25.6,29.90,SSW,203,15.0,15.0,13,0.00,,,0.00,WUHU216HW,2013-04-06 22:15:00,
2013-04-06 15:17:00,82.4,25.6,29.90,South,180,8.7,15.0,13,0.00,,,0.00,WUHU216HW,2013-04-06 22:17:00,
2013-04-06 15:20:00,82.4,25.6,29.90,West,270,7.6,15.0,13,0.00,,,0.00,WUHU216HW,2013-04-06 22:20:00,
2013-04-06 15:22:00,82.4,25.6,29.89,West,270,7.2,15.0,13,0.00,,,0.00,WUHU216HW,2013-04-06 22:22:00,
2013-04-06 15:25:00,82.4,25.6,29.89,WSW,248,8.9,15.0,13,0.00,,,0.00,WUHU216HW,2013-04-06 22:25:00,
2013-04-06 15:26:00,82.4,25.6,29.89,SW,225,8.5,12.8,13,0.00,,,0.00,WUHU216HW,2013-04-06 22:26:00,
2013-04-06 15:27:00,82.4,25.6,29.89,South,180,2.9,10.3,13,0.00,,,0.00,WUHU216HW,2013-04-06 22:27:00,
2013-04-06 15:30:00,82.8,25.8,29.89,SW,225,10.1,10.3,13,0.00,,,0.00,WUHU216HW,2013-04-06 22:30:00,
2013-04-06 15:31:00,82.8,24.1,29.89,WSW,248,16.6,16.6,12,0.00,,,0.00,WUHU216HW,2013-04-06 22:31:00,
2013-04-06 15:33:00,82.8,24.1,29.89,SW,225,12.8,16.6,12,0.00,,,0.00,WUHU216HW,2013-04-06 22:33:00,
2013-04-06 15:35:00,82.4,24.0,29.89,WSW,248,13.4,17.9,12,0.00,,,0.00,WUHU216HW,2013-04-06 22:35:00,
2013-04-06 15:37:00,82.3,23.8,29.89,SW,225,12.1,17.9,12,0.00,,,0.00,WUHU216HW,2013-04-06 22:37:00,
2013-04-06 15:38:00,82.3,23.8,29.89,SW,225,10.3,17.9,12,0.00,,,0.00,WUHU216HW,2013-04-06 22:38:00,
2013-04-06 15:40:00,82.3,23.8,29.89,SW,225,8.7,17.9,12,0.00,,,0.00,WUHU216HW,2013-04-06 22:40:00,
2013-04-06 15:42:00,82.3,23.8,29.89,South,180,7.8,17.9,12,0.00,,,0.00,WUHU216HW,2013-04-06 22:42:00,
2013-04-06 15:43:00,82.3,23.8,29.89,South,180,7.8,17.9,12,0.00,,,0.00,WUHU216HW,2013-04-06 22:43:00,
2013-04-06 15:45:00,82.4,24.0,29.89,South,180,8.7,15.0,12,0.00,,,0.00,WUHU216HW,2013-04-06 22:45:00,
2013-04-06 15:48:00,82.4,24.0,29.89,West,270,13.2,15.0,12,0.00,,,0.00,WUHU216HW,2013-04-06 22:48:00,
2013-04-06 15:49:00,82.6,24.0,29.89,West,270,12.8,15.0,12,0.00,,,0.00,WUHU216HW,2013-04-06 22:49:00,
2013-04-06 15:50:00,82.4,24.0,29.89,WSW,248,8.5,15.0,12,0.00,,,0.00,WUHU216HW,2013-04-06 22:50:00,
2013-04-06 15:53:00,81.9,23.5,29.89,West,270,13.4,15.0,12,0.00,,,0.00,WUHU216HW,2013-04-06 22:53:00,
2013-04-06 15:54:00,81.7,23.3,29.89,West,270,10.5,15.0,12,0.00,,,0.00,WUHU216HW,2013-04-06 22:54:00,
2013-04-06 15:56:00,81.4,23.0,29.89,WSW,248,7.4,15.0,12,0.00,,,0.00,WUHU216HW,2013-04-06 22:56:00,
2013-04-06 15:58:00,81.0,24.5,29.89,West,270,13.4,15.0,13,0.00,,,0.00,WUHU216HW,2013-04-06 22:58:00,
2013-04-06 15:59:00,81.0,24.5,29.89,West,270,8.5,15.0,13,0.00,,,0.00,WUHU216HW,2013-04-06 22:59:00,
2013-04-06 16:02:00,81.2,24.6,29.89,WSW,248,8.7,14.5,13,0.00,,,0.00,WUHU216HW,2013-04-06 23:02:00,
2013-04-06 16:03:00,81.4,24.8,29.89,SSW,203,13.0,14.5,13,0.00,,,0.00,WUHU216HW,2013-04-06 23:03:00,
2013-04-06 16:04:00,81.4,23.0,29.89,West,270,11.4,14.5,12,0.00,,,0.00,WUHU216HW,2013-04-06 23:04:00,
2013-04-06 16:07:00,81.4,23.0,29.89,WSW,248,6.3,14.5,12,0.00,,,0.00,WUHU216HW,2013-04-06 23:07:00,
2013-04-06 16:08:00,81.4,23.0,29.89,WSW,248,6.3,14.5,12,0.00,,,0.00,WUHU216HW,2013-04-06 23:08:00,
2013-04-06 16:09:00,81.4,23.0,29.89,WSW,248,17.0,17.0,12,0.00,,,0.00,WUHU216HW,2013-04-06 23:09:00,
2013-04-06 16:13:00,81.2,22.9,29.89,SW,225,8.5,17.0,12,0.00,,,0.00,WUHU216HW,2013-04-06 23:13:00,
2013-04-06 16:14:00,81.2,22.9,29.89,WSW,248,11.6,17.0,12,0.00,,,0.00,WUHU216HW,2013-04-06 23:14:00,
2013-04-06 16:18:00,81.2,22.9,29.89,SW,225,11.6,20.6,12,0.00,,,0.00,WUHU216HW,2013-04-06 23:18:00,
2013-04-06 16:19:00,81.2,22.9,29.89,WSW,248,13.0,20.6,12,0.00,,,0.00,WUHU216HW,2013-04-06 23:19:00,
2013-04-06 16:24:00,80.8,22.6,29.89,SSW,203,12.3,20.6,12,0.00,,,0.00,WUHU216HW,2013-04-06 23:24:00,
2013-04-06 16:25:00,80.8,22.6,29.89,WSW,248,9.8,20.6,12,0.00,,,0.00,WUHU216HW,2013-04-06 23:25:00,
2013-04-06 16:29:00,81.4,23.0,29.89,SSW,203,17.0,17.0,12,0.00,,,0.00,WUHU216HW,2013-04-06 23:29:00,
2013-04-06 16:30:00,81.5,21.5,29.89,WSW,248,18.3,19.0,11,0.00,,,0.00,WUHU216HW,2013-04-06 23:30:00,
2013-04-06 16:34:00,81.5,23.2,29.89,SSW,203,9.2,19.0,12,0.00,,,0.00,WUHU216HW,2013-04-06 23:34:00,
2013-04-06 16:35:00,81.7,23.3,29.89,SW,225,4.9,19.0,12,0.00,,,0.00,WUHU216HW,2013-04-06 23:35:00,
2013-04-06 16:39:00,82.1,22.0,29.89,WNW,293,13.2,18.3,11,0.00,,,0.00,WUHU216HW,2013-04-06 23:39:00,
2013-04-06 16:40:00,82.1,22.0,29.89,SW,225,12.1,14.8,11,0.00,,,0.00,WUHU216HW,2013-04-06 23:40:00,
2013-04-06 16:41:00,82.1,22.0,29.89,WSW,248,12.8,14.8,11,0.00,,,0.00,WUHU216HW,2013-04-06 23:41:00,
2013-04-06 16:45:00,81.9,21.8,29.89,SW,225,4.7,14.8,11,0.00,,,0.00,WUHU216HW,2013-04-06 23:45:00,
2013-04-06 16:47:00,82.1,22.0,29.89,SSW,203,12.1,14.8,11,0.00,,,0.00,WUHU216HW,2013-04-06 23:47:00,
2013-04-06 16:50:00,81.9,21.8,29.89,SSW,203,11.4,18.6,11,0.00,,,0.00,WUHU216HW,2013-04-06 23:50:00,
2013-04-06 16:52:00,81.9,21.8,29.89,WSW,248,10.7,18.6,11,0.00,,,0.00,WUHU216HW,2013-04-06 23:52:00,
2013-04-06 16:55:00,81.9,21.8,29.89,WSW,248,5.4,18.6,11,0.00,,,0.00,WUHU216HW,2013-04-06 23:55:00,
2013-04-06 16:56:00,81.9,21.8,29.89,WSW,248,5.4,18.6,11,0.00,,,0.00,WUHU216HW,2013-04-06 23:56:00,
2013-04-06 16:57:00,81.9,21.8,29.89,SW,225,6.9,15.7,11,0.00,,,0.00,WUHU216HW,2013-04-06 23:57:00,
2013-04-06 17:00:00,82.1,22.0,29.89,SW,225,8.9,13.6,11,0.00,,,0.00,WUHU216HW,2013-04-07 00:00:00,
2013-04-06 17:01:00,82.3,22.1,29.89,West,270,7.8,12.8,11,0.00,,,0.00,WUHU216HW,2013-04-07 00:01:00,
2013-04-06 17:02:00,82.3,22.1,29.89,SSW,203,10.3,12.8,11,0.00,,,0.00,WUHU216HW,2013-04-07 00:02:00,
2013-04-06 17:06:00,82.1,22.0,29.89,West,270,9.4,14.3,11,0.00,,,0.00,WUHU216HW,2013-04-07 00:06:00,
2013-04-06 17:07:00,82.1,22.0,29.89,West,270,7.6,14.3,11,0.00,,,0.00,WUHU216HW,2013-04-07 00:07:00,
2013-04-06 17:12:00,82.4,22.2,29.89,SW,225,4.7,15.0,11,0.00,,,0.00,WUHU216HW,2013-04-07 00:12:00,
2013-04-06 17:13:00,82.6,22.3,29.89,WNW,293,5.4,15.0,11,0.00,,,0.00,WUHU216HW,2013-04-07 00:13:00,
2013-04-06 17:17:00,83.0,22.6,29.89,WSW,248,6.3,15.0,11,0.00,,,0.00,WUHU216HW,2013-04-07 00:17:00,
2013-04-06 17:18:00,83.2,22.7,29.89,West,270,7.6,15.0,11,0.00,,,0.00,WUHU216HW,2013-04-07 00:18:00,
2013-04-06 17:22:00,84.2,21.8,29.89,WSW,248,8.7,12.5,10,0.00,,,0.00,WUHU216HW,2013-04-07 00:22:00,
2013-04-06 17:23:00,84.2,21.8,29.89,West,270,10.3,12.8,10,0.00,,,0.00,WUHU216HW,2013-04-07 00:23:00,
2013-04-06 17:27:00,84.2,21.8,29.89,WSW,248,14.8,15.0,10,0.00,,,0.00,WUHU216HW,2013-04-07 00:27:00,
2013-04-06 17:29:00,84.2,21.8,29.89,SSW,203,5.8,15.0,10,0.00,,,0.00,WUHU216HW,2013-04-07 00:29:00,
2013-04-06 17:32:00,84.8,22.2,29.89,SW,225,6.3,15.0,10,0.00,,,0.00,WUHU216HW,2013-04-07 00:32:00,
2013-04-06 17:34:00,85.3,22.7,29.89,WSW,248,6.3,15.0,10,0.00,,,0.00,WUHU216HW,2013-04-07 00:34:00,
2013-04-06 17:37:00,85.3,22.7,29.89,WSW,248,10.5,15.0,10,0.00,,,0.00,WUHU216HW,2013-04-07 00:37:00,
2013-04-06 17:38:00,85.3,22.7,29.89,WSW,248,11.2,15.0,10,0.00,,,0.00,WUHU216HW,2013-04-07 00:38:00,
2013-04-06 17:39:00,85.1,22.5,29.89,WSW,248,9.8,15.0,10,0.00,,,0.00,WUHU216HW,2013-04-07 00:39:00,
2013-04-06 17:42:00,84.6,22.1,29.89,WSW,248,9.8,15.0,10,0.00,,,0.00,WUHU216HW,2013-04-07 00:42:00,
2013-04-06 17:43:00,84.4,22.0,29.89,WSW,248,9.6,15.0,10,0.00,,,0.00,WUHU216HW,2013-04-07 00:43:00,
2013-04-06 17:44:00,84.2,21.8,29.89,West,270,9.2,15.0,10,0.00,,,0.00,WUHU216HW,2013-04-07 00:44:00,
2013-04-06 17:45:00,84.2,21.8,29.89,West,270,9.2,15.0,10,0.00,,,0.00,WUHU216HW,2013-04-07 00:45:00,
2013-04-06 17:48:00,84.1,21.7,29.89,SW,225,10.1,13.6,10,0.00,,,0.00,WUHU216HW,2013-04-07 00:48:00,
2013-04-06 17:50:00,83.9,21.5,29.89,SW,225,9.8,13.6,10,0.00,,,0.00,WUHU216HW,2013-04-07 00:50:00,
2013-04-06 17:53:00,83.9,21.5,29.89,WSW,248,6.9,11.9,10,0.00,,,0.00,WUHU216HW,2013-04-07 00:53:00,
2013-04-06 17:55:00,83.7,21.4,29.89,SW,225,8.5,11.9,10,0.00,,,0.00,WUHU216HW,2013-04-07 00:55:00,
2013-04-06 17:58:00,83.3,21.2,29.89,WSW,248,4.0,11.4,10,0.00,,,0.00,WUHU216HW,2013-04-07 00:58:00,
2013-04-06 18:00:00,83.3,21.2,29.89,SW,225,4.9,11.4,10,0.00,,,0.00,WUHU216HW,2013-04-07 01:00:00,
2013-04-06 18:03:00,83.2,21.1,29.89,WSW,248,3.6,10.5,10,0.00,,,0.00,WUHU216HW,2013-04-07 01:03:00,
2013-04-06 18:04:00,83.2,21.1,29.89,WSW,248,3.6,10.5,10,0.00,,,0.00,WUHU216HW,2013-04-07 01:04:00,
2013-04-06 18:06:00,83.0,20.9,29.89,SW,225,5.4,9.4,10,0.00,,,0.00,WUHU216HW,2013-04-07 01:06:00,
2013-04-06 18:08:00,82.8,22.5,29.89,SW,225,5.4,9.4,11,0.00,,,0.00,WUHU216HW,2013-04-07 01:08:00,
2013-04-06 18:09:00,82.8,22.5,29.89,SW,225,5.6,9.4,11,0.00,,,0.00,WUHU216HW,2013-04-07 01:09:00,
2013-04-06 18:11:00,82.6,22.3,29.89,WSW,248,5.4,9.4,11,0.00,,,0.00,WUHU216HW,2013-04-07 01:11:00,
2013-04-06 18:12:00,82.4,22.2,29.89,WSW,248,5.6,8.7,11,0.00,,,0.00,WUHU216HW,2013-04-07 01:12:00,
2013-04-06 18:13:00,82.3,22.1,29.89,WSW,248,5.1,8.7,11,0.00,,,0.00,WUHU216HW,2013-04-07 01:13:00,
2013-04-06 18:15:00,81.9,21.8,29.89,SW,225,4.7,8.3,11,0.00,,,0.00,WUHU216HW,2013-04-07 01:15:00,
2013-04-06 18:17:00,81.2,21.3,29.89,SW,225,7.6,9.4,11,0.00,,,0.00,WUHU216HW,2013-04-07 01:17:00,
2013-04-06 18:19:00,80.5,20.6,29.89,WSW,248,6.3,9.4,11,0.00,,,0.00,WUHU216HW,2013-04-07 01:19:00,
2013-04-06 18:20:00,80.3,20.5,29.89,SW,225,3.6,9.4,11,0.00,,,0.00,WUHU216HW,2013-04-07 01:20:00,
2013-04-06 18:22:00,79.6,19.9,29.89,WSW,248,4.7,9.4,11,0.00,,,0.00,WUHU216HW,2013-04-07 01:22:00,
2013-04-06 18:23:00,79.6,21.6,29.89,West,270,3.4,9.4,12,0.00,,,0.00,WUHU216HW,2013-04-07 01:23:00,
2013-04-06 18:24:00,79.0,21.2,29.90,West,270,7.6,9.4,12,0.00,,,0.00,WUHU216HW,2013-04-07 01:24:00,
2013-04-06 18:25:00,78.7,20.9,29.90,NW,315,4.7,7.8,12,0.00,,,0.00,WUHU216HW,2013-04-07 01:25:00,
2013-04-06 18:27:00,78.1,20.4,29.89,West,270,4.7,7.8,12,0.00,,,0.00,WUHU216HW,2013-04-07 01:27:00,
2013-04-06 18:29:00,77.4,20.0,29.89,SW,225,2.7,7.8,12,0.00,,,0.00,WUHU216HW,2013-04-07 01:29:00,
2013-04-06 18:31:00,77.0,19.7,29.89,WSW,248,3.8,7.8,12,0.00,,,0.00,WUHU216HW,2013-04-07 01:31:00,
2013-04-06 18:32:00,76.7,19.5,29.90,WSW,248,4.0,7.8,12,0.00,,,0.00,WUHU216HW,2013-04-07 01:32:00,
2013-04-06 18:34:00,76.5,20.9,29.89,WSW,248,3.1,7.8,13,0.00,,,0.00,WUHU216HW,2013-04-07 01:34:00,
2013-04-06 18:35:00,76.5,20.9,29.89,WSW,248,4.0,7.8,13,0.00,,,0.00,WUHU216HW,2013-04-07 01:35:00,
2013-04-06 18:36:00,76.3,20.8,29.89,SSW,203,0.7,7.8,13,0.00,,,0.00,WUHU216HW,2013-04-07 01:36:00,
2013-04-06 18:38:00,76.3,20.8,29.89,West,270,0.4,7.8,13,0.00,,,0.00,WUHU216HW,2013-04-07 01:38:00,
2013-04-06 18:40:00,76.1,20.6,29.89,WNW,293,1.6,7.8,13,0.00,,,0.00,WUHU216HW,2013-04-07 01:40:00,
2013-04-06 18:42:00,76.0,20.5,29.90,West,270,2.2,4.0,13,0.00,,,0.00,WUHU216HW,2013-04-07 01:42:00,
2013-04-06 18:43:00,76.0,20.5,29.90,West,270,2.2,4.0,13,0.00,,,0.00,WUHU216HW,2013-04-07 01:43:00,
2013-04-06 18:45:00,75.6,20.2,29.90,WNW,293,2.5,4.0,13,0.00,,,0.00,WUHU216HW,2013-04-07 01:45:00,
2013-04-06 18:47:00,74.9,19.6,29.90,WSW,248,3.6,8.9,13,0.00,,,0.00,WUHU216HW,2013-04-07 01:47:00,
2013-04-06 18:48:00,74.9,19.6,29.90,West,270,5.1,8.9,13,0.00,,,0.00,WUHU216HW,2013-04-07 01:48:00,
2013-04-06 18:50:00,74.3,22.5,29.90,SSW,203,6.3,8.9,15,0.00,,,0.00,WUHU216HW,2013-04-07 01:50:00,
2013-04-06 18:52:00,74.0,22.3,29.90,WSW,248,6.5,8.9,15,0.00,,,0.00,WUHU216HW,2013-04-07 01:52:00,
2013-04-06 18:53:00,73.8,22.1,29.90,West,270,6.3,8.9,15,0.00,,,0.00,WUHU216HW,2013-04-07 01:53:00,
2013-04-06 18:55:00,73.4,21.9,29.90,WSW,248,7.4,10.5,15,0.00,,,0.00,WUHU216HW,2013-04-07 01:55:00,
2013-04-06 18:56:00,73.4,21.9,29.90,SW,225,5.8,10.5,15,0.00,,,0.00,WUHU216HW,2013-04-07 01:56:00,
2013-04-06 18:58:00,73.1,21.6,29.90,WSW,248,6.9,10.5,15,0.00,,,0.00,WUHU216HW,2013-04-07 01:58:00,
2013-04-06 19:01:00,72.7,21.2,29.90,West,270,5.4,10.5,15,0.00,,,0.00,WUHU216HW,2013-04-07 02:01:00,
2013-04-06 19:02:00,72.7,21.2,29.90,WSW,248,4.7,10.5,15,0.00,,,0.00,WUHU216HW,2013-04-07 02:02:00,
2013-04-06 19:03:00,72.7,21.2,29.90,WSW,248,3.4,10.5,15,0.00,,,0.00,WUHU216HW,2013-04-07 02:03:00,
2013-04-06 19:07:00,72.2,22.4,29.90,WSW,248,4.9,7.8,16,0.00,,,0.00,WUHU216HW,2013-04-07 02:07:00,
2013-04-06 19:08:00,72.0,22.2,29.90,WSW,248,3.8,7.8,16,0.00,,,0.00,WUHU216HW,2013-04-07 02:08:00,
2013-04-06 19:12:00,71.6,22.0,29.90,NW,315,4.7,6.5,16,0.00,,,0.00,WUHU216HW,2013-04-07 02:12:00,
2013-04-06 19:13:00,71.6,22.0,29.90,West,270,2.9,6.5,16,0.00,,,0.00,WUHU216HW,2013-04-07 02:13:00,
2013-04-06 19:17:00,71.3,21.7,29.90,SW,225,2.5,6.9,16,0.00,,,0.00,WUHU216HW,2013-04-07 02:17:00,
2013-04-06 19:18:00,71.3,21.7,29.90,WSW,248,2.2,6.9,16,0.00,,,0.00,WUHU216HW,2013-04-07 02:18:00,
2013-04-06 19:23:00,71.1,23.1,29.90,WSW,248,6.9,6.9,17,0.00,,,0.00,WUHU216HW,2013-04-07 02:23:00,
2013-04-06 19:24:00,70.9,21.4,29.90,SSW,203,4.0,6.9,16,0.00,,,0.00,WUHU216HW,2013-04-07 02:24:00,
2013-04-06 19:28:00,70.4,22.6,29.91,SW,225,3.4,6.9,17,0.00,,,0.00,WUHU216HW,2013-04-07 02:28:00,
2013-04-06 19:29:00,70.4,22.6,29.91,SW,225,3.4,6.9,17,0.00,,,0.00,WUHU216HW,2013-04-07 02:29:00,
2013-04-06 19:33:00,70.2,22.4,29.91,WSW,248,5.6,5.6,17,0.00,,,0.00,WUHU216HW,2013-04-07 02:33:00,
2013-04-06 19:34:00,69.8,22.1,29.91,West,270,5.1,6.3,17,0.00,,,0.00,WUHU216HW,2013-04-07 02:34:00,
2013-04-06 19:35:00,69.8,22.1,29.91,WSW,248,5.4,6.3,17,0.00,,,0.00,WUHU216HW,2013-04-07 02:35:00,
2013-04-06 19:38:00,69.7,23.6,29.91,WSW,248,4.3,7.4,18,0.00,,,0.00,WUHU216HW,2013-04-07 02:38:00,
2013-04-06 19:40:00,69.7,23.6,29.91,WSW,248,6.7,7.8,18,0.00,,,0.00,WUHU216HW,2013-04-07 02:40:00,
2013-04-06 19:43:00,69.8,23.8,29.90,West,270,7.2,9.2,18,0.00,,,0.00,WUHU216HW,2013-04-07 02:43:00,
2013-04-06 19:45:00,70.0,24.0,29.91,SW,225,5.4,9.2,18,0.00,,,0.00,WUHU216HW,2013-04-07 02:45:00,
2013-04-06 19:48:00,70.0,22.3,29.91,WSW,248,5.4,9.2,17,0.00,,,0.00,WUHU216HW,2013-04-07 02:48:00,
2013-04-06 19:50:00,70.0,24.0,29.91,WSW,248,8.5,9.2,18,0.00,,,0.00,WUHU216HW,2013-04-07 02:50:00,
2013-04-06 19:53:00,69.5,23.5,29.91,WSW,248,7.6,9.2,18,0.00,,,0.00,WUHU216HW,2013-04-07 02:53:00,
2013-04-06 19:55:00,69.5,23.5,29.90,WSW,248,6.9,10.5,18,0.00,,,0.00,WUHU216HW,2013-04-07 02:55:00,
2013-04-06 19:58:00,69.7,23.6,29.91,WSW,248,4.5,10.5,18,0.00,,,0.00,WUHU216HW,2013-04-07 02:58:00,
2013-04-06 20:00:00,69.7,23.6,29.91,WSW,248,4.9,10.5,18,0.00,,,0.00,WUHU216HW,2013-04-07 03:00:00,
2013-04-06 20:02:00,69.7,23.6,29.91,West,270,6.0,10.5,18,0.00,,,0.00,WUHU216HW,2013-04-07 03:02:00,
2013-04-06 20:03:00,69.5,23.5,29.91,West,270,6.9,10.5,18,0.00,,,0.00,WUHU216HW,2013-04-07 03:03:00,
2013-04-06 20:05:00,69.5,23.5,29.91,SSW,203,4.0,7.6,18,0.00,,,0.00,WUHU216HW,2013-04-07 03:05:00,
2013-04-06 20:06:00,69.5,23.5,29.91,WSW,248,3.6,7.6,18,0.00,,,0.00,WUHU216HW,2013-04-07 03:06:00,
2013-04-06 20:07:00,69.3,23.3,29.91,SW,225,3.4,7.6,18,0.00,,,0.00,WUHU216HW,2013-04-07 03:07:00,
2013-04-06 20:09:00,69.3,23.3,29.91,West,270,5.1,8.3,18,0.00,,,0.00,WUHU216HW,2013-04-07 03:09:00,
2013-04-06 20:10:00,69.3,23.3,29.91,West,270,4.5,8.3,18,0.00,,,0.00,WUHU216HW,2013-04-07 03:10:00,
2013-04-06 20:11:00,69.1,23.2,29.91,West,270,4.5,8.3,18,0.00,,,0.00,WUHU216HW,2013-04-07 03:11:00,
2013-04-06 20:12:00,69.1,23.2,29.91,WSW,248,4.3,8.3,18,0.00,,,0.00,WUHU216HW,2013-04-07 03:12:00,
2013-04-06 20:15:00,68.8,23.0,29.91,WSW,248,5.6,8.3,18,0.00,,,0.00,WUHU216HW,2013-04-07 03:15:00,
2013-04-06 20:17:00,68.6,22.8,29.91,WSW,248,5.4,8.3,18,0.00,,,0.00,WUHU216HW,2013-04-07 03:17:00,
2013-04-06 20:20:00,68.0,23.9,29.91,SW,225,3.4,6.5,19,0.00,,,0.00,WUHU216HW,2013-04-07 03:20:00,
2013-04-06 20:22:00,67.7,23.7,29.91,WSW,248,4.7,6.5,19,0.00,,,0.00,WUHU216HW,2013-04-07 03:22:00,
2013-04-06 20:23:00,67.5,23.5,29.91,WSW,248,4.0,6.5,19,0.00,,,0.00,WUHU216HW,2013-04-07 03:23:00,
2013-04-06 20:25:00,67.1,23.1,29.91,WSW,248,4.0,6.5,19,0.00,,,0.00,WUHU216HW,2013-04-07 03:25:00,
2013-04-06 20:27:00,67.0,23.1,29.91,WSW,248,3.4,6.5,19,0.00,,,0.00,WUHU216HW,2013-04-07 03:27:00,
2013-04-06 20:28:00,67.0,23.1,29.91,WSW,248,2.7,6.5,19,0.00,,,0.00,WUHU216HW,2013-04-07 03:28:00,
2013-04-06 20:30:00,66.6,24.3,29.91,WSW,248,4.0,6.5,20,0.00,,,0.00,WUHU216HW,2013-04-07 03:30:00,
2013-04-06 20:31:00,66.6,22.7,29.91,SW,225,3.6,6.5,19,0.00,,,0.00,WUHU216HW,2013-04-07 03:31:00,
2013-04-06 20:32:00,66.4,24.1,29.91,SW,225,4.0,6.0,20,0.00,,,0.00,WUHU216HW,2013-04-07 03:32:00,
2013-04-06 20:33:00,66.4,22.5,29.91,SW,225,4.3,6.0,19,0.00,,,0.00,WUHU216HW,2013-04-07 03:33:00,
2013-04-06 20:35:00,66.1,24.9,29.91,WSW,248,5.4,6.0,21,0.00,,,0.00,WUHU216HW,2013-04-07 03:35:00,
2013-04-06 20:37:00,65.9,24.7,29.91,WSW,248,4.7,6.0,21,0.00,,,0.00,WUHU216HW,2013-04-07 03:37:00,
2013-04-06 20:38:00,65.7,24.5,29.92,WSW,248,5.8,6.0,21,0.00,,,0.00,WUHU216HW,2013-04-07 03:38:00,
2013-04-06 20:40:00,65.3,24.2,29.92,WSW,248,5.6,6.3,21,0.00,,,0.00,WUHU216HW,2013-04-07 03:40:00,
2013-04-06 20:42:00,65.2,25.1,29.92,SW,225,4.7,6.3,22,0.00,,,0.00,WUHU216HW,2013-04-07 03:42:00,
2013-04-06 20:43:00,65.0,24.9,29.92,SW,225,4.5,6.3,22,0.00,,,0.00,WUHU216HW,2013-04-07 03:43:00,
2013-04-06 20:46:00,64.8,23.8,29.91,WSW,248,3.4,6.3,21,0.00,,,0.00,WUHU216HW,2013-04-07 03:46:00,
2013-04-06 20:47:00,64.6,24.7,29.92,WSW,248,3.4,6.3,22,0.00,,,0.00,WUHU216HW,2013-04-07 03:47:00,
2013-04-06 20:49:00,64.4,24.5,29.92,WSW,248,4.3,6.3,22,0.00,,,0.00,WUHU216HW,2013-04-07 03:49:00,
2013-04-06 20:52:00,64.1,24.2,29.92,West,270,6.9,6.9,22,0.00,,,0.00,WUHU216HW,2013-04-07 03:52:00,
2013-04-06 20:54:00,63.9,25.0,29.92,SW,225,4.0,6.9,23,0.00,,,0.00,WUHU216HW,2013-04-07 03:54:00,
2013-04-06 20:55:00,63.9,24.0,29.92,SW,225,4.0,6.9,22,0.00,,,0.00,WUHU216HW,2013-04-07 03:55:00,
2013-04-06 20:57:00,63.7,24.8,29.92,WSW,248,5.1,6.9,23,0.00,,,0.00,WUHU216HW,2013-04-07 03:57:00,
2013-04-06 20:59:00,63.5,24.8,29.92,WSW,248,6.3,6.9,23,0.00,,,0.00,WUHU216HW,2013-04-07 03:59:00,
2013-04-06 21:00:00,63.5,24.8,29.92,WSW,248,5.4,6.9,23,0.00,,,0.00,WUHU216HW,2013-04-07 04:00:00,
2013-04-06 21:01:00,63.4,24.6,29.92,West,270,5.6,6.9,23,0.00,,,0.00,WUHU216HW,2013-04-07 04:01:00,
2013-04-06 21:05:00,63.2,25.4,29.92,WSW,248,6.7,7.6,24,0.00,,,0.00,WUHU216HW,2013-04-07 04:05:00,
2013-04-06 21:06:00,63.2,25.4,29.92,WSW,248,6.3,7.6,24,0.00,,,0.00,WUHU216HW,2013-04-07 04:06:00,
2013-04-06 21:10:00,63.2,25.4,29.92,WSW,248,6.3,7.6,24,0.00,,,0.00,WUHU216HW,2013-04-07 04:10:00,
2013-04-06 21:12:00,63.2,25.4,29.92,WSW,248,4.7,7.6,24,0.00,,,0.00,WUHU216HW,2013-04-07 04:12:00,
2013-04-06 21:15:00,63.0,25.3,29.92,WSW,248,6.0,7.4,24,0.00,,,0.00,WUHU216HW,2013-04-07 04:15:00,
2013-04-06 21:17:00,62.6,24.9,29.92,WSW,248,6.0,7.4,24,0.00,,,0.00,WUHU216HW,2013-04-07 04:17:00,
2013-04-06 21:20:00,62.5,25.7,29.92,WSW,248,6.3,6.9,25,0.00,,,0.00,WUHU216HW,2013-04-07 04:20:00,
2013-04-06 21:22:00,62.5,25.7,29.92,West,270,5.6,6.9,25,0.00,,,0.00,WUHU216HW,2013-04-07 04:22:00,
2013-04-06 21:25:00,63.0,26.2,29.92,West,270,5.1,9.2,25,0.00,,,0.00,WUHU216HW,2013-04-07 04:25:00,
2013-04-06 21:26:00,63.0,26.2,29.92,West,270,6.9,9.2,25,0.00,,,0.00,WUHU216HW,2013-04-07 04:26:00,
2013-04-06 21:27:00,63.4,26.6,29.92,WSW,248,6.3,9.2,25,0.00,,,0.00,WUHU216HW,2013-04-07 04:27:00,
2013-04-06 21:30:00,63.9,26.0,29.92,WSW,248,6.3,9.2,24,0.00,,,0.00,WUHU216HW,2013-04-07 04:30:00,
2013-04-06 21:31:00,64.1,26.2,29.92,WSW,248,5.8,9.2,24,0.00,,,0.00,WUHU216HW,2013-04-07 04:31:00,
2013-04-06 21:32:00,64.1,26.2,29.92,WSW,248,4.7,9.2,24,0.00,,,0.00,WUHU216HW,2013-04-07 04:32:00,
2013-04-06 21:33:00,64.1,26.2,29.92,WSW,248,4.3,8.9,24,0.00,,,0.00,WUHU216HW,2013-04-07 04:33:00,
2013-04-06 21:35:00,63.7,25.8,29.92,WSW,248,5.4,8.1,24,0.00,,,0.00,WUHU216HW,2013-04-07 04:35:00,
2013-04-06 21:36:00,63.7,25.8,29.92,WSW,248,6.3,6.9,24,0.00,,,0.00,WUHU216HW,2013-04-07 04:36:00,
2013-04-06 21:38:00,63.4,26.6,29.92,WSW,248,6.3,6.9,25,0.00,,,0.00,WUHU216HW,2013-04-07 04:38:00,
2013-04-06 21:40:00,63.0,26.2,29.92,WSW,248,5.1,6.7,25,0.00,,,0.00,WUHU216HW,2013-04-07 04:40:00,
2013-04-06 21:41:00,63.0,26.2,29.92,WSW,248,5.4,6.5,25,0.00,,,0.00,WUHU216HW,2013-04-07 04:41:00,
2013-04-06 21:43:00,62.8,26.1,29.92,WSW,248,6.3,6.5,25,0.00,,,0.00,WUHU216HW,2013-04-07 04:43:00,
2013-04-06 21:45:00,62.5,25.7,29.92,WSW,248,6.9,7.2,25,0.00,,,0.00,WUHU216HW,2013-04-07 04:45:00,
2013-04-06 21:47:00,62.1,26.5,29.92,WSW,248,5.6,7.2,26,0.00,,,0.00,WUHU216HW,2013-04-07 04:47:00,
2013-04-06 21:48:00,61.9,25.3,29.92,WSW,248,6.0,7.2,25,0.00,,,0.00,WUHU216HW,2013-04-07 04:48:00,
2013-04-06 21:50:00,61.6,25.0,29.92,WSW,248,6.9,7.6,25,0.00,,,0.00,WUHU216HW,2013-04-07 04:50:00,
2013-04-06 21:52:00,61.4,24.8,29.92,WSW,248,7.6,7.6,25,0.00,,,0.00,WUHU216HW,2013-04-07 04:52:00,
2013-04-06 21:53:00,61.4,25.8,29.92,WSW,248,8.5,8.5,26,0.00,,,0.00,WUHU216HW,2013-04-07 04:53:00,
2013-04-06 21:56:00,61.4,26.7,29.92,WSW,248,7.2,8.5,27,0.00,,,0.00,WUHU216HW,2013-04-07 04:56:00,
2013-04-06 21:57:00,61.6,26.9,29.92,WSW,248,5.1,8.5,27,0.00,,,0.00,WUHU216HW,2013-04-07 04:57:00,
2013-04-06 21:58:00,61.6,26.9,29.92,WSW,248,7.6,8.5,27,0.00,,,0.00,WUHU216HW,2013-04-07 04:58:00,
2013-04-06 21:59:00,61.6,26.9,29.92,WSW,248,5.8,8.5,27,0.00,,,0.00,WUHU216HW,2013-04-07 04:59:00,
2013-04-06 22:01:00,61.7,27.1,29.92,WSW,248,6.3,8.5,27,0.00,,,0.00,WUHU216HW,2013-04-07 05:01:00,
2013-04-06 22:02:00,61.7,27.1,29.92,WSW,248,4.5,8.5,27,0.00,,,0.00,WUHU216HW,2013-04-07 05:02:00,
2013-04-06 22:04:00,61.7,25.1,29.92,WSW,248,5.4,7.8,25,0.00,,,0.00,WUHU216HW,2013-04-07 05:04:00,
2013-04-06 22:06:00,61.6,25.9,29.92,SW,225,6.3,7.6,26,0.00,,,0.00,WUHU216HW,2013-04-07 05:06:00,
2013-04-06 22:07:00,61.6,25.9,29.92,WSW,248,5.4,7.6,26,0.00,,,0.00,WUHU216HW,2013-04-07 05:07:00,
2013-04-06 22:09:00,61.4,26.7,29.92,WSW,248,4.5,7.2,27,0.00,,,0.00,WUHU216HW,2013-04-07 05:09:00,
2013-04-06 22:11:00,61.2,26.7,29.92,WSW,248,5.4,7.2,27,0.00,,,0.00,WUHU216HW,2013-04-07 05:11:00,
2013-04-06 22:12:00,61.0,26.5,29.92,WSW,248,5.1,7.2,27,0.00,,,0.00,WUHU216HW,2013-04-07 05:12:00,
2013-04-06 22:15:00,60.8,26.3,29.92,WSW,248,5.8,7.2,27,0.00,,,0.00,WUHU216HW,2013-04-07 05:15:00,
2013-04-06 22:16:00,60.8,26.3,29.92,WSW,248,4.7,6.5,27,0.00,,,0.00,WUHU216HW,2013-04-07 05:16:00,
2013-04-06 22:17:00,60.8,26.3,29.92,West,270,4.3,6.5,27,0.00,,,0.00,WUHU216HW,2013-04-07 05:17:00,
2013-04-06 22:20:00,60.8,26.3,29.92,WSW,248,4.0,6.3,27,0.00,,,0.00,WUHU216HW,2013-04-07 05:20:00,
2013-04-06 22:21:00,60.8,26.3,29.92,WSW,248,5.4,6.3,27,0.00,,,0.00,WUHU216HW,2013-04-07 05:21:00,
2013-04-06 22:22:00,60.8,26.3,29.92,WSW,248,4.3,6.3,27,0.00,,,0.00,WUHU216HW,2013-04-07 05:22:00,
2013-04-06 22:24:00,60.8,26.3,29.92,WSW,248,5.4,6.5,27,0.00,,,0.00,WUHU216HW,2013-04-07 05:24:00,
2013-04-06 22:26:00,60.8,27.3,29.92,WSW,248,5.1,7.4,28,0.00,,,0.00,WUHU216HW,2013-04-07 05:26:00,
2013-04-06 22:27:00,60.8,27.3,29.92,West,270,3.4,7.4,28,0.00,,,0.00,WUHU216HW,2013-04-07 05:27:00,
2013-04-06 22:29:00,60.8,26.3,29.92,SW,225,5.8,7.4,27,0.00,,,0.00,WUHU216HW,2013-04-07 05:29:00,
2013-04-06 22:31:00,61.0,26.5,29.92,SW,225,6.5,9.8,27,0.00,,,0.00,WUHU216HW,2013-04-07 05:31:00,
2013-04-06 22:32:00,61.2,26.7,29.92,WSW,248,3.4,9.8,27,0.00,,,0.00,WUHU216HW,2013-04-07 05:32:00,
2013-04-06 22:35:00,61.2,27.5,29.92,WSW,248,5.4,9.8,28,0.00,,,0.00,WUHU216HW,2013-04-07 05:35:00,
2013-04-06 22:36:00,61.2,26.7,29.92,SW,225,4.7,9.8,27,0.00,,,0.00,WUHU216HW,2013-04-07 05:36:00,
2013-04-06 22:37:00,61.2,26.7,29.92,WSW,248,4.7,9.8,27,0.00,,,0.00,WUHU216HW,2013-04-07 05:37:00,
2013-04-06 22:40:00,60.8,26.3,29.92,SW,225,3.4,9.8,27,0.00,,,0.00,WUHU216HW,2013-04-07 05:40:00,
2013-04-06 22:42:00,60.7,26.2,29.92,SSW,203,4.7,5.8,27,0.00,,,0.00,WUHU216HW,2013-04-07 05:42:00,
2013-04-06 22:43:00,60.5,26.0,29.92,SW,225,3.6,5.8,27,0.00,,,0.00,WUHU216HW,2013-04-07 05:43:00,
2013-04-06 22:45:00,60.1,25.8,29.92,SW,225,4.0,5.4,27,0.00,,,0.00,WUHU216HW,2013-04-07 05:45:00,
2013-04-06 22:47:00,59.9,26.6,29.92,SW,225,4.0,4.7,28,0.00,,,0.00,WUHU216HW,2013-04-07 05:47:00,
2013-04-06 22:48:00,59.8,26.4,29.92,SW,225,3.6,4.7,28,0.00,,,0.00,WUHU216HW,2013-04-07 05:48:00,
2013-04-06 22:51:00,59.4,26.1,29.92,SW,225,2.9,4.7,28,0.00,,,0.00,WUHU216HW,2013-04-07 05:51:00,
2013-04-06 22:52:00,59.2,25.9,29.92,SW,225,4.3,4.7,28,0.00,,,0.00,WUHU216HW,2013-04-07 05:52:00,
2013-04-06 22:53:00,59.0,25.7,29.92,WSW,248,4.0,4.5,28,0.00,,,0.00,WUHU216HW,2013-04-07 05:53:00,
2013-04-06 22:56:00,58.7,25.5,29.92,WSW,248,3.4,5.4,28,0.00,,,0.00,WUHU216HW,2013-04-07 05:56:00,
2013-04-06 22:57:00,58.7,25.5,29.92,SW,225,3.6,5.4,28,0.00,,,0.00,WUHU216HW,2013-04-07 05:57:00,
2013-04-06 22:58:00,58.7,26.5,29.92,WSW,248,6.0,6.0,29,0.00,,,0.00,WUHU216HW,2013-04-07 05:58:00,
2013-04-06 22:59:00,58.5,26.3,29.92,SW,225,4.7,6.0,29,0.00,,,0.00,WUHU216HW,2013-04-07 05:59:00,
2013-04-06 23:01:00,58.3,26.1,29.92,SW,225,4.0,6.0,29,0.00,,,0.00,WUHU216HW,2013-04-07 06:01:00,
2013-04-06 23:02:00,58.3,26.1,29.92,WSW,248,3.8,6.0,29,0.00,,,0.00,WUHU216HW,2013-04-07 06:02:00,
2013-04-06 23:03:00,58.3,27.1,29.92,WSW,248,4.9,6.0,30,0.00,,,0.00,WUHU216HW,2013-04-07 06:03:00,
2013-04-06 23:04:00,58.3,27.1,29.92,WSW,248,5.1,6.0,30,0.00,,,0.00,WUHU216HW,2013-04-07 06:04:00,
2013-04-06 23:06:00,58.3,27.1,29.92,West,270,4.7,6.0,30,0.00,,,0.00,WUHU216HW,2013-04-07 06:06:00,
2013-04-06 23:07:00,58.3,27.1,29.92,WSW,248,5.6,6.0,30,0.00,,,0.00,WUHU216HW,2013-04-07 06:07:00,
2013-04-06 23:08:00,58.5,27.9,29.92,West,270,6.0,6.0,31,0.00,,,0.00,WUHU216HW,2013-04-07 06:08:00,
2013-04-06 23:09:00,58.5,27.9,29.92,WSW,248,5.4,6.0,31,0.00,,,0.00,WUHU216HW,2013-04-07 06:09:00,
2013-04-06 23:12:00,58.7,28.1,29.92,West,270,5.8,6.3,31,0.00,,,0.00,WUHU216HW,2013-04-07 06:12:00,
2013-04-06 23:13:00,58.9,27.5,29.92,West,270,4.5,6.3,30,0.00,,,0.00,WUHU216HW,2013-04-07 06:13:00,
2013-04-06 23:14:00,59.0,27.7,29.92,West,270,3.1,6.3,30,0.00,,,0.00,WUHU216HW,2013-04-07 06:14:00,
2013-04-06 23:17:00,59.4,28.0,29.92,WSW,248,6.7,9.2,30,0.00,,,0.00,WUHU216HW,2013-04-07 06:17:00,
2013-04-06 23:18:00,59.6,28.2,29.92,West,270,8.1,9.2,30,0.00,,,0.00,WUHU216HW,2013-04-07 06:18:00,
2013-04-06 23:19:00,59.8,28.3,29.92,West,270,6.9,9.2,30,0.00,,,0.00,WUHU216HW,2013-04-07 06:19:00,
2013-04-06 23:22:00,60.3,27.8,29.92,West,270,6.5,9.2,29,0.00,,,0.00,WUHU216HW,2013-04-07 06:22:00,
2013-04-06 23:23:00,60.3,27.8,29.92,West,270,8.3,9.2,29,0.00,,,0.00,WUHU216HW,2013-04-07 06:23:00,
2013-04-06 23:24:00,60.5,27.9,29.92,SW,225,6.3,9.2,29,0.00,,,0.00,WUHU216HW,2013-04-07 06:24:00,
2013-04-06 23:28:00,60.7,28.1,29.92,West,270,7.4,9.2,29,0.00,,,0.00,WUHU216HW,2013-04-07 06:28:00,
2013-04-06 23:29:00,60.7,28.1,29.92,West,270,7.4,9.2,29,0.00,,,0.00,WUHU216HW,2013-04-07 06:29:00,
2013-04-06 23:33:00,60.8,28.2,29.92,West,270,6.9,9.2,29,0.00,,,0.00,WUHU216HW,2013-04-07 06:33:00,
2013-04-06 23:34:00,60.7,28.1,29.92,WSW,248,6.9,9.2,29,0.00,,,0.00,WUHU216HW,2013-04-07 06:34:00,
2013-04-06 23:35:00,60.7,28.1,29.92,West,270,6.9,9.2,29,0.00,,,0.00,WUHU216HW,2013-04-07 06:35:00,
2013-04-06 23:38:00,60.5,27.9,29.92,West,270,6.9,8.5,29,0.00,,,0.00,WUHU216HW,2013-04-07 06:38:00,
2013-04-06 23:39:00,60.5,27.9,29.92,WSW,248,5.4,8.5,29,0.00,,,0.00,WUHU216HW,2013-04-07 06:39:00,
2013-04-06 23:40:00,60.5,27.9,29.92,WSW,248,6.3,8.5,29,0.00,,,0.00,WUHU216HW,2013-04-07 06:40:00,
2013-04-06 23:43:00,60.3,27.8,29.92,SW,225,5.6,7.4,29,0.00,,,0.00,WUHU216HW,2013-04-07 06:43:00,
2013-04-06 23:44:00,60.1,27.6,29.92,WSW,248,4.0,6.9,29,0.00,,,0.00,WUHU216HW,2013-04-07 06:44:00,
2013-04-06 23:45:00,60.1,27.6,29.92,WSW,248,4.7,6.9,29,0.00,,,0.00,WUHU216HW,2013-04-07 06:45:00,
2013-04-06 23:48:00,59.8,27.4,29.92,SSW,203,3.4,6.5,29,0.00,,,0.00,WUHU216HW,2013-04-07 06:48:00,
2013-04-06 23:50:00,59.6,27.2,29.92,SSW,203,2.7,6.5,29,0.00,,,0.00,WUHU216HW,2013-04-07 06:50:00,
2013-04-06 23:51:00,59.6,27.2,29.92,SW,225,2.0,6.5,29,0.00,,,0.00,WUHU216HW,2013-04-07 06:51:00,
2013-04-06 23:53:00,59.4,27.0,29.92,WSW,248,0.2,6.5,29,0.00,,,0.00,WUHU216HW,2013-04-07 06:53:00,
2013-04-06 23:55:00,59.4,27.0,29.92,SE,135,1.8,6.5,29,0.00,,,0.00,WUHU216HW,2013-04-07 06:55:00,
2013-04-06 23:57:00,59.4,27.0,29.92,ESE,113,0.9,4.7,29,0.00,,,0.00,WUHU216HW,2013-04-07 06:57:00,
2013-04-06 23:58:00,59.2,26.9,29.92,ESE,113,0.7,3.4,29,0.00,,,0.00,WUHU216HW,2013-04-07 06:58:00,